<gpx creator="Cyclotour.ca" version="1.1" xmlns:gpsies="http://www.gpsies.com/GPX/1/0" xmlns:xsi="http://www.w3.org/2001/XMLSchema-instance" xmlns="http://www.topografix.com/GPX/1/1" xsi:schemaLocation="http://www.topografix.com/GPX/1/1 http://www.topografix.com/GPX/1/1/gpx.xsd http://www.gpsies.com/GPX/1/0 http://www.gpsies.com/gpsies.xsd">
<trk>
<name>Cycloroute de Bellechase (2018)</name>
<trkseg>
<trkpt lat="46.696030000" lon="-71.065250000">
<ele>0</ele>
<time>2026-09-04T06:23:34Z</time>
</trkpt>
<trkpt lat="46.695920000" lon="-71.065040000">
<ele>0</ele>
<time>2026-09-04T06:23:35Z</time>
</trkpt>
<trkpt lat="46.695920000" lon="-71.065040000">
<ele>0</ele>
<time>2026-09-04T06:23:36Z</time>
</trkpt>
<trkpt lat="46.695290000" lon="-71.063840000">
<ele>0</ele>
<time>2026-09-04T06:23:37Z</time>
</trkpt>
<trkpt lat="46.693820000" lon="-71.061210000">
<ele>0</ele>
<time>2026-09-04T06:23:38Z</time>
</trkpt>
<trkpt lat="46.692560000" lon="-71.058850000">
<ele>0</ele>
<time>2026-09-04T06:23:39Z</time>
</trkpt>
<trkpt lat="46.692000000" lon="-71.057940000">
<ele>0</ele>
<time>2026-09-04T06:23:40Z</time>
</trkpt>
<trkpt lat="46.691590000" lon="-71.057240000">
<ele>0</ele>
<time>2026-09-04T06:23:41Z</time>
</trkpt>
<trkpt lat="46.691170000" lon="-71.056440000">
<ele>0</ele>
<time>2026-09-04T06:23:42Z</time>
</trkpt>
<trkpt lat="46.690540000" lon="-71.054970000">
<ele>0</ele>
<time>2026-09-04T06:23:43Z</time>
</trkpt>
<trkpt lat="46.689390000" lon="-71.051980000">
<ele>0</ele>
<time>2026-09-04T06:23:44Z</time>
</trkpt>
<trkpt lat="46.686170000" lon="-71.043490000">
<ele>0</ele>
<time>2026-09-04T06:23:45Z</time>
</trkpt>
<trkpt lat="46.685660000" lon="-71.042250000">
<ele>0</ele>
<time>2026-09-04T06:23:46Z</time>
</trkpt>
<trkpt lat="46.685170000" lon="-71.041080000">
<ele>0</ele>
<time>2026-09-04T06:23:47Z</time>
</trkpt>
<trkpt lat="46.683990000" lon="-71.039020000">
<ele>0</ele>
<time>2026-09-04T06:23:48Z</time>
</trkpt>
<trkpt lat="46.672420000" lon="-71.023210000">
<ele>0</ele>
<time>2026-09-04T06:23:49Z</time>
</trkpt>
<trkpt lat="46.667490000" lon="-71.016360000">
<ele>0</ele>
<time>2026-09-04T06:23:50Z</time>
</trkpt>
<trkpt lat="46.664970000" lon="-71.012970000">
<ele>0</ele>
<time>2026-09-04T06:23:51Z</time>
</trkpt>
<trkpt lat="46.663410000" lon="-71.011280000">
<ele>0</ele>
<time>2026-09-04T06:23:52Z</time>
</trkpt>
<trkpt lat="46.662730000" lon="-71.010490000">
<ele>0</ele>
<time>2026-09-04T06:23:53Z</time>
</trkpt>
<trkpt lat="46.659630000" lon="-71.006130000">
<ele>0</ele>
<time>2026-09-04T06:23:54Z</time>
</trkpt>
<trkpt lat="46.651890000" lon="-70.995430000">
<ele>0</ele>
<time>2026-09-04T06:23:55Z</time>
</trkpt>
<trkpt lat="46.648190000" lon="-70.990230000">
<ele>0</ele>
<time>2026-09-04T06:23:56Z</time>
</trkpt>
<trkpt lat="46.646370000" lon="-70.987740000">
<ele>0</ele>
<time>2026-09-04T06:23:57Z</time>
</trkpt>
<trkpt lat="46.644740000" lon="-70.985430000">
<ele>0</ele>
<time>2026-09-04T06:23:58Z</time>
</trkpt>
<trkpt lat="46.644000000" lon="-70.984210000">
<ele>0</ele>
<time>2026-09-04T06:23:59Z</time>
</trkpt>
<trkpt lat="46.643320000" lon="-70.982930000">
<ele>0</ele>
<time>2026-09-04T06:24:00Z</time>
</trkpt>
<trkpt lat="46.642550000" lon="-70.980980000">
<ele>0</ele>
<time>2026-09-04T06:24:01Z</time>
</trkpt>
<trkpt lat="46.641890000" lon="-70.979630000">
<ele>0</ele>
<time>2026-09-04T06:24:02Z</time>
</trkpt>
<trkpt lat="46.641130000" lon="-70.978520000">
<ele>0</ele>
<time>2026-09-04T06:24:03Z</time>
</trkpt>
<trkpt lat="46.640270000" lon="-70.977680000">
<ele>0</ele>
<time>2026-09-04T06:24:04Z</time>
</trkpt>
<trkpt lat="46.639500000" lon="-70.977260000">
<ele>0</ele>
<time>2026-09-04T06:24:05Z</time>
</trkpt>
<trkpt lat="46.636940000" lon="-70.976310000">
<ele>0</ele>
<time>2026-09-04T06:24:06Z</time>
</trkpt>
<trkpt lat="46.636000000" lon="-70.975680000">
<ele>0</ele>
<time>2026-09-04T06:24:07Z</time>
</trkpt>
<trkpt lat="46.635300000" lon="-70.974860000">
<ele>0</ele>
<time>2026-09-04T06:24:08Z</time>
</trkpt>
<trkpt lat="46.634520000" lon="-70.973710000">
<ele>0</ele>
<time>2026-09-04T06:24:09Z</time>
</trkpt>
<trkpt lat="46.633970000" lon="-70.972680000">
<ele>0</ele>
<time>2026-09-04T06:24:10Z</time>
</trkpt>
<trkpt lat="46.633240000" lon="-70.971180000">
<ele>0</ele>
<time>2026-09-04T06:24:11Z</time>
</trkpt>
<trkpt lat="46.632740000" lon="-70.970410000">
<ele>0</ele>
<time>2026-09-04T06:24:12Z</time>
</trkpt>
<trkpt lat="46.631620000" lon="-70.969410000">
<ele>0</ele>
<time>2026-09-04T06:24:13Z</time>
</trkpt>
<trkpt lat="46.631410000" lon="-70.969750000">
<ele>0</ele>
<time>2026-09-04T06:24:14Z</time>
</trkpt>
<trkpt lat="46.631090000" lon="-70.970230000">
<ele>0</ele>
<time>2026-09-04T06:24:15Z</time>
</trkpt>
<trkpt lat="46.630560000" lon="-70.970940000">
<ele>0</ele>
<time>2026-09-04T06:24:16Z</time>
</trkpt>
<trkpt lat="46.630290000" lon="-70.970050000">
<ele>0</ele>
<time>2026-09-04T06:24:17Z</time>
</trkpt>
<trkpt lat="46.629870000" lon="-70.968660000">
<ele>0</ele>
<time>2026-09-04T06:24:18Z</time>
</trkpt>
<trkpt lat="46.628670000" lon="-70.968060000">
<ele>0</ele>
<time>2026-09-04T06:24:19Z</time>
</trkpt>
<trkpt lat="46.627950000" lon="-70.967490000">
<ele>0</ele>
<time>2026-09-04T06:24:20Z</time>
</trkpt>
<trkpt lat="46.627750000" lon="-70.967350000">
<ele>0</ele>
<time>2026-09-04T06:24:21Z</time>
</trkpt>
<trkpt lat="46.627480000" lon="-70.967170000">
<ele>0</ele>
<time>2026-09-04T06:24:22Z</time>
</trkpt>
<trkpt lat="46.627240000" lon="-70.967060000">
<ele>0</ele>
<time>2026-09-04T06:24:23Z</time>
</trkpt>
<trkpt lat="46.626970000" lon="-70.966840000">
<ele>0</ele>
<time>2026-09-04T06:24:24Z</time>
</trkpt>
<trkpt lat="46.626350000" lon="-70.966240000">
<ele>0</ele>
<time>2026-09-04T06:24:25Z</time>
</trkpt>
<trkpt lat="46.624550000" lon="-70.964370000">
<ele>0</ele>
<time>2026-09-04T06:24:26Z</time>
</trkpt>
<trkpt lat="46.624450000" lon="-70.964270000">
<ele>0</ele>
<time>2026-09-04T06:24:27Z</time>
</trkpt>
<trkpt lat="46.624270000" lon="-70.964020000">
<ele>0</ele>
<time>2026-09-04T06:24:28Z</time>
</trkpt>
<trkpt lat="46.623810000" lon="-70.963310000">
<ele>0</ele>
<time>2026-09-04T06:24:29Z</time>
</trkpt>
<trkpt lat="46.623620000" lon="-70.962970000">
<ele>0</ele>
<time>2026-09-04T06:24:30Z</time>
</trkpt>
<trkpt lat="46.623460000" lon="-70.962580000">
<ele>0</ele>
<time>2026-09-04T06:24:31Z</time>
</trkpt>
<trkpt lat="46.623380000" lon="-70.962390000">
<ele>0</ele>
<time>2026-09-04T06:24:32Z</time>
</trkpt>
<trkpt lat="46.623170000" lon="-70.961600000">
<ele>0</ele>
<time>2026-09-04T06:24:33Z</time>
</trkpt>
<trkpt lat="46.623070000" lon="-70.961160000">
<ele>0</ele>
<time>2026-09-04T06:24:34Z</time>
</trkpt>
<trkpt lat="46.622990000" lon="-70.960720000">
<ele>0</ele>
<time>2026-09-04T06:24:35Z</time>
</trkpt>
<trkpt lat="46.622960000" lon="-70.960510000">
<ele>0</ele>
<time>2026-09-04T06:24:36Z</time>
</trkpt>
<trkpt lat="46.622940000" lon="-70.960430000">
<ele>0</ele>
<time>2026-09-04T06:24:37Z</time>
</trkpt>
<trkpt lat="46.622900000" lon="-70.960400000">
<ele>0</ele>
<time>2026-09-04T06:24:38Z</time>
</trkpt>
<trkpt lat="46.622540000" lon="-70.960370000">
<ele>0</ele>
<time>2026-09-04T06:24:39Z</time>
</trkpt>
<trkpt lat="46.622470000" lon="-70.960330000">
<ele>0</ele>
<time>2026-09-04T06:24:40Z</time>
</trkpt>
<trkpt lat="46.622430000" lon="-70.960280000">
<ele>0</ele>
<time>2026-09-04T06:24:41Z</time>
</trkpt>
<trkpt lat="46.622320000" lon="-70.959960000">
<ele>0</ele>
<time>2026-09-04T06:24:42Z</time>
</trkpt>
<trkpt lat="46.622270000" lon="-70.959520000">
<ele>0</ele>
<time>2026-09-04T06:24:43Z</time>
</trkpt>
<trkpt lat="46.622180000" lon="-70.959020000">
<ele>0</ele>
<time>2026-09-04T06:24:44Z</time>
</trkpt>
<trkpt lat="46.622000000" lon="-70.958650000">
<ele>0</ele>
<time>2026-09-04T06:24:45Z</time>
</trkpt>
<trkpt lat="46.621840000" lon="-70.958340000">
<ele>0</ele>
<time>2026-09-04T06:24:46Z</time>
</trkpt>
<trkpt lat="46.621780000" lon="-70.958020000">
<ele>0</ele>
<time>2026-09-04T06:24:47Z</time>
</trkpt>
<trkpt lat="46.621760000" lon="-70.957710000">
<ele>0</ele>
<time>2026-09-04T06:24:48Z</time>
</trkpt>
<trkpt lat="46.621750000" lon="-70.957340000">
<ele>0</ele>
<time>2026-09-04T06:24:49Z</time>
</trkpt>
<trkpt lat="46.621790000" lon="-70.957110000">
<ele>0</ele>
<time>2026-09-04T06:24:50Z</time>
</trkpt>
<trkpt lat="46.621770000" lon="-70.956940000">
<ele>0</ele>
<time>2026-09-04T06:24:51Z</time>
</trkpt>
<trkpt lat="46.621660000" lon="-70.956650000">
<ele>0</ele>
<time>2026-09-04T06:24:52Z</time>
</trkpt>
<trkpt lat="46.621570000" lon="-70.956130000">
<ele>0</ele>
<time>2026-09-04T06:24:53Z</time>
</trkpt>
<trkpt lat="46.621320000" lon="-70.955530000">
<ele>0</ele>
<time>2026-09-04T06:24:54Z</time>
</trkpt>
<trkpt lat="46.621260000" lon="-70.955190000">
<ele>0</ele>
<time>2026-09-04T06:24:55Z</time>
</trkpt>
<trkpt lat="46.621270000" lon="-70.954850000">
<ele>0</ele>
<time>2026-09-04T06:24:56Z</time>
</trkpt>
<trkpt lat="46.621350000" lon="-70.954510000">
<ele>0</ele>
<time>2026-09-04T06:24:57Z</time>
</trkpt>
<trkpt lat="46.621480000" lon="-70.954180000">
<ele>0</ele>
<time>2026-09-04T06:24:58Z</time>
</trkpt>
<trkpt lat="46.621510000" lon="-70.954030000">
<ele>0</ele>
<time>2026-09-04T06:24:59Z</time>
</trkpt>
<trkpt lat="46.621500000" lon="-70.953880000">
<ele>0</ele>
<time>2026-09-04T06:25:00Z</time>
</trkpt>
<trkpt lat="46.621500000" lon="-70.953750000">
<ele>0</ele>
<time>2026-09-04T06:25:01Z</time>
</trkpt>
<trkpt lat="46.621540000" lon="-70.953630000">
<ele>0</ele>
<time>2026-09-04T06:25:02Z</time>
</trkpt>
<trkpt lat="46.621610000" lon="-70.953520000">
<ele>0</ele>
<time>2026-09-04T06:25:03Z</time>
</trkpt>
<trkpt lat="46.621760000" lon="-70.953430000">
<ele>0</ele>
<time>2026-09-04T06:25:04Z</time>
</trkpt>
<trkpt lat="46.621800000" lon="-70.953400000">
<ele>0</ele>
<time>2026-09-04T06:25:05Z</time>
</trkpt>
<trkpt lat="46.621830000" lon="-70.953300000">
<ele>0</ele>
<time>2026-09-04T06:25:06Z</time>
</trkpt>
<trkpt lat="46.621830000" lon="-70.953200000">
<ele>0</ele>
<time>2026-09-04T06:25:07Z</time>
</trkpt>
<trkpt lat="46.621710000" lon="-70.952830000">
<ele>0</ele>
<time>2026-09-04T06:25:08Z</time>
</trkpt>
<trkpt lat="46.621570000" lon="-70.952410000">
<ele>0</ele>
<time>2026-09-04T06:25:09Z</time>
</trkpt>
<trkpt lat="46.621340000" lon="-70.952040000">
<ele>0</ele>
<time>2026-09-04T06:25:10Z</time>
</trkpt>
<trkpt lat="46.621080000" lon="-70.951680000">
<ele>0</ele>
<time>2026-09-04T06:25:11Z</time>
</trkpt>
<trkpt lat="46.620230000" lon="-70.950670000">
<ele>0</ele>
<time>2026-09-04T06:25:12Z</time>
</trkpt>
<trkpt lat="46.619870000" lon="-70.950260000">
<ele>0</ele>
<time>2026-09-04T06:25:13Z</time>
</trkpt>
<trkpt lat="46.619490000" lon="-70.949890000">
<ele>0</ele>
<time>2026-09-04T06:25:14Z</time>
</trkpt>
<trkpt lat="46.619110000" lon="-70.949630000">
<ele>0</ele>
<time>2026-09-04T06:25:15Z</time>
</trkpt>
<trkpt lat="46.618730000" lon="-70.949450000">
<ele>0</ele>
<time>2026-09-04T06:25:16Z</time>
</trkpt>
<trkpt lat="46.618340000" lon="-70.949340000">
<ele>0</ele>
<time>2026-09-04T06:25:17Z</time>
</trkpt>
<trkpt lat="46.617910000" lon="-70.949250000">
<ele>0</ele>
<time>2026-09-04T06:25:18Z</time>
</trkpt>
<trkpt lat="46.616930000" lon="-70.949040000">
<ele>0</ele>
<time>2026-09-04T06:25:19Z</time>
</trkpt>
<trkpt lat="46.616920000" lon="-70.948940000">
<ele>0</ele>
<time>2026-09-04T06:25:20Z</time>
</trkpt>
<trkpt lat="46.616920000" lon="-70.948940000">
<ele>0</ele>
<time>2026-09-04T06:25:21Z</time>
</trkpt>
<trkpt lat="46.616930000" lon="-70.949040000">
<ele>0</ele>
<time>2026-09-04T06:25:22Z</time>
</trkpt>
<trkpt lat="46.616190000" lon="-70.948890000">
<ele>0</ele>
<time>2026-09-04T06:25:23Z</time>
</trkpt>
<trkpt lat="46.615110000" lon="-70.948710000">
<ele>0</ele>
<time>2026-09-04T06:25:24Z</time>
</trkpt>
<trkpt lat="46.614480000" lon="-70.948700000">
<ele>0</ele>
<time>2026-09-04T06:25:25Z</time>
</trkpt>
<trkpt lat="46.614030000" lon="-70.948820000">
<ele>0</ele>
<time>2026-09-04T06:25:26Z</time>
</trkpt>
<trkpt lat="46.613560000" lon="-70.949050000">
<ele>0</ele>
<time>2026-09-04T06:25:27Z</time>
</trkpt>
<trkpt lat="46.613090000" lon="-70.949410000">
<ele>0</ele>
<time>2026-09-04T06:25:28Z</time>
</trkpt>
<trkpt lat="46.612600000" lon="-70.949950000">
<ele>0</ele>
<time>2026-09-04T06:25:29Z</time>
</trkpt>
<trkpt lat="46.612180000" lon="-70.949470000">
<ele>0</ele>
<time>2026-09-04T06:25:30Z</time>
</trkpt>
<trkpt lat="46.611560000" lon="-70.948860000">
<ele>0</ele>
<time>2026-09-04T06:25:31Z</time>
</trkpt>
<trkpt lat="46.610760000" lon="-70.948150000">
<ele>0</ele>
<time>2026-09-04T06:25:32Z</time>
</trkpt>
<trkpt lat="46.609420000" lon="-70.946810000">
<ele>0</ele>
<time>2026-09-04T06:25:33Z</time>
</trkpt>
<trkpt lat="46.608800000" lon="-70.946090000">
<ele>0</ele>
<time>2026-09-04T06:25:34Z</time>
</trkpt>
<trkpt lat="46.608470000" lon="-70.945750000">
<ele>0</ele>
<time>2026-09-04T06:25:35Z</time>
</trkpt>
<trkpt lat="46.607900000" lon="-70.945230000">
<ele>0</ele>
<time>2026-09-04T06:25:36Z</time>
</trkpt>
<trkpt lat="46.607860000" lon="-70.945190000">
<ele>0</ele>
<time>2026-09-04T06:25:37Z</time>
</trkpt>
<trkpt lat="46.605090000" lon="-70.945790000">
<ele>0</ele>
<time>2026-09-04T06:25:38Z</time>
</trkpt>
<trkpt lat="46.603180000" lon="-70.946130000">
<ele>0</ele>
<time>2026-09-04T06:25:39Z</time>
</trkpt>
<trkpt lat="46.598870000" lon="-70.947000000">
<ele>0</ele>
<time>2026-09-04T06:25:40Z</time>
</trkpt>
<trkpt lat="46.594060000" lon="-70.947930000">
<ele>0</ele>
<time>2026-09-04T06:25:41Z</time>
</trkpt>
<trkpt lat="46.593300000" lon="-70.948010000">
<ele>0</ele>
<time>2026-09-04T06:25:42Z</time>
</trkpt>
<trkpt lat="46.592890000" lon="-70.948010000">
<ele>0</ele>
<time>2026-09-04T06:25:44Z</time>
</trkpt>
<trkpt lat="46.592470000" lon="-70.947950000">
<ele>0</ele>
<time>2026-09-04T06:25:45Z</time>
</trkpt>
<trkpt lat="46.592110000" lon="-70.947820000">
<ele>0</ele>
<time>2026-09-04T06:25:46Z</time>
</trkpt>
<trkpt lat="46.591750000" lon="-70.947660000">
<ele>0</ele>
<time>2026-09-04T06:25:47Z</time>
</trkpt>
<trkpt lat="46.591210000" lon="-70.947310000">
<ele>0</ele>
<time>2026-09-04T06:25:48Z</time>
</trkpt>
<trkpt lat="46.590770000" lon="-70.946930000">
<ele>0</ele>
<time>2026-09-04T06:25:49Z</time>
</trkpt>
<trkpt lat="46.590260000" lon="-70.946370000">
<ele>0</ele>
<time>2026-09-04T06:25:50Z</time>
</trkpt>
<trkpt lat="46.589700000" lon="-70.945460000">
<ele>0</ele>
<time>2026-09-04T06:25:51Z</time>
</trkpt>
<trkpt lat="46.589300000" lon="-70.944620000">
<ele>0</ele>
<time>2026-09-04T06:25:52Z</time>
</trkpt>
<trkpt lat="46.589060000" lon="-70.943900000">
<ele>0</ele>
<time>2026-09-04T06:25:53Z</time>
</trkpt>
<trkpt lat="46.588910000" lon="-70.943170000">
<ele>0</ele>
<time>2026-09-04T06:25:54Z</time>
</trkpt>
<trkpt lat="46.588790000" lon="-70.942350000">
<ele>0</ele>
<time>2026-09-04T06:25:55Z</time>
</trkpt>
<trkpt lat="46.588730000" lon="-70.941440000">
<ele>0</ele>
<time>2026-09-04T06:25:56Z</time>
</trkpt>
<trkpt lat="46.588800000" lon="-70.940500000">
<ele>0</ele>
<time>2026-09-04T06:25:57Z</time>
</trkpt>
<trkpt lat="46.589000000" lon="-70.939460000">
<ele>0</ele>
<time>2026-09-04T06:25:58Z</time>
</trkpt>
<trkpt lat="46.589230000" lon="-70.938620000">
<ele>0</ele>
<time>2026-09-04T06:25:59Z</time>
</trkpt>
<trkpt lat="46.589620000" lon="-70.937680000">
<ele>0</ele>
<time>2026-09-04T06:26:00Z</time>
</trkpt>
<trkpt lat="46.590490000" lon="-70.936310000">
<ele>0</ele>
<time>2026-09-04T06:26:01Z</time>
</trkpt>
<trkpt lat="46.591880000" lon="-70.934390000">
<ele>0</ele>
<time>2026-09-04T06:26:02Z</time>
</trkpt>
<trkpt lat="46.593520000" lon="-70.932070000">
<ele>0</ele>
<time>2026-09-04T06:26:03Z</time>
</trkpt>
<trkpt lat="46.594010000" lon="-70.931310000">
<ele>0</ele>
<time>2026-09-04T06:26:04Z</time>
</trkpt>
<trkpt lat="46.594410000" lon="-70.930510000">
<ele>0</ele>
<time>2026-09-04T06:26:05Z</time>
</trkpt>
<trkpt lat="46.594630000" lon="-70.929870000">
<ele>0</ele>
<time>2026-09-04T06:26:06Z</time>
</trkpt>
<trkpt lat="46.594820000" lon="-70.929150000">
<ele>0</ele>
<time>2026-09-04T06:26:07Z</time>
</trkpt>
<trkpt lat="46.594940000" lon="-70.928460000">
<ele>0</ele>
<time>2026-09-04T06:26:08Z</time>
</trkpt>
<trkpt lat="46.594980000" lon="-70.927600000">
<ele>0</ele>
<time>2026-09-04T06:26:09Z</time>
</trkpt>
<trkpt lat="46.594960000" lon="-70.926830000">
<ele>0</ele>
<time>2026-09-04T06:26:10Z</time>
</trkpt>
<trkpt lat="46.594920000" lon="-70.926380000">
<ele>0</ele>
<time>2026-09-04T06:26:11Z</time>
</trkpt>
<trkpt lat="46.594780000" lon="-70.925840000">
<ele>0</ele>
<time>2026-09-04T06:26:12Z</time>
</trkpt>
<trkpt lat="46.593990000" lon="-70.923140000">
<ele>0</ele>
<time>2026-09-04T06:26:13Z</time>
</trkpt>
<trkpt lat="46.593170000" lon="-70.920540000">
<ele>0</ele>
<time>2026-09-04T06:26:14Z</time>
</trkpt>
<trkpt lat="46.593100000" lon="-70.920270000">
<ele>0</ele>
<time>2026-09-04T06:26:15Z</time>
</trkpt>
<trkpt lat="46.593040000" lon="-70.920030000">
<ele>0</ele>
<time>2026-09-04T06:26:16Z</time>
</trkpt>
<trkpt lat="46.592950000" lon="-70.919480000">
<ele>0</ele>
<time>2026-09-04T06:26:17Z</time>
</trkpt>
<trkpt lat="46.592890000" lon="-70.918920000">
<ele>0</ele>
<time>2026-09-04T06:26:18Z</time>
</trkpt>
<trkpt lat="46.592860000" lon="-70.918400000">
<ele>0</ele>
<time>2026-09-04T06:26:19Z</time>
</trkpt>
<trkpt lat="46.592880000" lon="-70.917820000">
<ele>0</ele>
<time>2026-09-04T06:26:20Z</time>
</trkpt>
<trkpt lat="46.592920000" lon="-70.917360000">
<ele>0</ele>
<time>2026-09-04T06:26:21Z</time>
</trkpt>
<trkpt lat="46.593120000" lon="-70.915340000">
<ele>0</ele>
<time>2026-09-04T06:26:22Z</time>
</trkpt>
<trkpt lat="46.593360000" lon="-70.912920000">
<ele>0</ele>
<time>2026-09-04T06:26:23Z</time>
</trkpt>
<trkpt lat="46.593410000" lon="-70.911880000">
<ele>0</ele>
<time>2026-09-04T06:26:24Z</time>
</trkpt>
<trkpt lat="46.593410000" lon="-70.911180000">
<ele>0</ele>
<time>2026-09-04T06:26:25Z</time>
</trkpt>
<trkpt lat="46.593340000" lon="-70.910650000">
<ele>0</ele>
<time>2026-09-04T06:26:26Z</time>
</trkpt>
<trkpt lat="46.593230000" lon="-70.910100000">
<ele>0</ele>
<time>2026-09-04T06:26:27Z</time>
</trkpt>
<trkpt lat="46.592950000" lon="-70.908940000">
<ele>0</ele>
<time>2026-09-04T06:26:28Z</time>
</trkpt>
<trkpt lat="46.592140000" lon="-70.905210000">
<ele>0</ele>
<time>2026-09-04T06:26:29Z</time>
</trkpt>
<trkpt lat="46.590630000" lon="-70.898660000">
<ele>0</ele>
<time>2026-09-04T06:26:30Z</time>
</trkpt>
<trkpt lat="46.589860000" lon="-70.895070000">
<ele>0</ele>
<time>2026-09-04T06:26:31Z</time>
</trkpt>
<trkpt lat="46.588910000" lon="-70.890930000">
<ele>0</ele>
<time>2026-09-04T06:26:32Z</time>
</trkpt>
<trkpt lat="46.588630000" lon="-70.889540000">
<ele>0</ele>
<time>2026-09-04T06:26:33Z</time>
</trkpt>
<trkpt lat="46.588440000" lon="-70.887870000">
<ele>0</ele>
<time>2026-09-04T06:26:34Z</time>
</trkpt>
<trkpt lat="46.588390000" lon="-70.886830000">
<ele>0</ele>
<time>2026-09-04T06:26:35Z</time>
</trkpt>
<trkpt lat="46.588380000" lon="-70.885780000">
<ele>0</ele>
<time>2026-09-04T06:26:36Z</time>
</trkpt>
<trkpt lat="46.588440000" lon="-70.884630000">
<ele>0</ele>
<time>2026-09-04T06:26:37Z</time>
</trkpt>
<trkpt lat="46.588610000" lon="-70.883250000">
<ele>0</ele>
<time>2026-09-04T06:26:38Z</time>
</trkpt>
<trkpt lat="46.588710000" lon="-70.882240000">
<ele>0</ele>
<time>2026-09-04T06:26:39Z</time>
</trkpt>
<trkpt lat="46.588780000" lon="-70.881350000">
<ele>0</ele>
<time>2026-09-04T06:26:40Z</time>
</trkpt>
<trkpt lat="46.588900000" lon="-70.880840000">
<ele>0</ele>
<time>2026-09-04T06:26:41Z</time>
</trkpt>
<trkpt lat="46.589230000" lon="-70.879550000">
<ele>0</ele>
<time>2026-09-04T06:26:42Z</time>
</trkpt>
<trkpt lat="46.590030000" lon="-70.876850000">
<ele>0</ele>
<time>2026-09-04T06:26:43Z</time>
</trkpt>
<trkpt lat="46.591710000" lon="-70.871240000">
<ele>0</ele>
<time>2026-09-04T06:26:44Z</time>
</trkpt>
<trkpt lat="46.592370000" lon="-70.869020000">
<ele>0</ele>
<time>2026-09-04T06:26:45Z</time>
</trkpt>
<trkpt lat="46.593120000" lon="-70.866370000">
<ele>0</ele>
<time>2026-09-04T06:26:46Z</time>
</trkpt>
<trkpt lat="46.593720000" lon="-70.864530000">
<ele>0</ele>
<time>2026-09-04T06:26:47Z</time>
</trkpt>
<trkpt lat="46.593840000" lon="-70.864110000">
<ele>0</ele>
<time>2026-09-04T06:26:48Z</time>
</trkpt>
<trkpt lat="46.593900000" lon="-70.863780000">
<ele>0</ele>
<time>2026-09-04T06:26:49Z</time>
</trkpt>
<trkpt lat="46.593970000" lon="-70.862860000">
<ele>0</ele>
<time>2026-09-04T06:26:50Z</time>
</trkpt>
<trkpt lat="46.594050000" lon="-70.861810000">
<ele>0</ele>
<time>2026-09-04T06:26:51Z</time>
</trkpt>
<trkpt lat="46.594070000" lon="-70.861130000">
<ele>0</ele>
<time>2026-09-04T06:26:52Z</time>
</trkpt>
<trkpt lat="46.594040000" lon="-70.859590000">
<ele>0</ele>
<time>2026-09-04T06:26:53Z</time>
</trkpt>
<trkpt lat="46.594000000" lon="-70.859010000">
<ele>0</ele>
<time>2026-09-04T06:26:54Z</time>
</trkpt>
<trkpt lat="46.593880000" lon="-70.858120000">
<ele>0</ele>
<time>2026-09-04T06:26:55Z</time>
</trkpt>
<trkpt lat="46.593630000" lon="-70.856480000">
<ele>0</ele>
<time>2026-09-04T06:26:56Z</time>
</trkpt>
<trkpt lat="46.593350000" lon="-70.854100000">
<ele>0</ele>
<time>2026-09-04T06:26:57Z</time>
</trkpt>
<trkpt lat="46.592730000" lon="-70.849670000">
<ele>0</ele>
<time>2026-09-04T06:26:58Z</time>
</trkpt>
<trkpt lat="46.592070000" lon="-70.844560000">
<ele>0</ele>
<time>2026-09-04T06:26:59Z</time>
</trkpt>
<trkpt lat="46.591850000" lon="-70.842750000">
<ele>0</ele>
<time>2026-09-04T06:27:00Z</time>
</trkpt>
<trkpt lat="46.591670000" lon="-70.841870000">
<ele>0</ele>
<time>2026-09-04T06:27:01Z</time>
</trkpt>
<trkpt lat="46.591440000" lon="-70.841000000">
<ele>0</ele>
<time>2026-09-04T06:27:02Z</time>
</trkpt>
<trkpt lat="46.591260000" lon="-70.840450000">
<ele>0</ele>
<time>2026-09-04T06:27:03Z</time>
</trkpt>
<trkpt lat="46.591030000" lon="-70.839830000">
<ele>0</ele>
<time>2026-09-04T06:27:04Z</time>
</trkpt>
<trkpt lat="46.590800000" lon="-70.839320000">
<ele>0</ele>
<time>2026-09-04T06:27:05Z</time>
</trkpt>
<trkpt lat="46.590460000" lon="-70.838780000">
<ele>0</ele>
<time>2026-09-04T06:27:06Z</time>
</trkpt>
<trkpt lat="46.590070000" lon="-70.838270000">
<ele>0</ele>
<time>2026-09-04T06:27:07Z</time>
</trkpt>
<trkpt lat="46.589800000" lon="-70.837930000">
<ele>0</ele>
<time>2026-09-04T06:27:08Z</time>
</trkpt>
<trkpt lat="46.589320000" lon="-70.837450000">
<ele>0</ele>
<time>2026-09-04T06:27:09Z</time>
</trkpt>
<trkpt lat="46.587670000" lon="-70.836160000">
<ele>0</ele>
<time>2026-09-04T06:27:10Z</time>
</trkpt>
<trkpt lat="46.586230000" lon="-70.834990000">
<ele>0</ele>
<time>2026-09-04T06:27:11Z</time>
</trkpt>
<trkpt lat="46.584290000" lon="-70.833470000">
<ele>0</ele>
<time>2026-09-04T06:27:12Z</time>
</trkpt>
<trkpt lat="46.579900000" lon="-70.830000000">
<ele>0</ele>
<time>2026-09-04T06:27:13Z</time>
</trkpt>
<trkpt lat="46.579640000" lon="-70.829840000">
<ele>0</ele>
<time>2026-09-04T06:27:14Z</time>
</trkpt>
<trkpt lat="46.579250000" lon="-70.829660000">
<ele>0</ele>
<time>2026-09-04T06:27:15Z</time>
</trkpt>
<trkpt lat="46.578700000" lon="-70.829470000">
<ele>0</ele>
<time>2026-09-04T06:27:16Z</time>
</trkpt>
<trkpt lat="46.578220000" lon="-70.829350000">
<ele>0</ele>
<time>2026-09-04T06:27:17Z</time>
</trkpt>
<trkpt lat="46.577590000" lon="-70.829200000">
<ele>0</ele>
<time>2026-09-04T06:27:18Z</time>
</trkpt>
<trkpt lat="46.576850000" lon="-70.829120000">
<ele>0</ele>
<time>2026-09-04T06:27:19Z</time>
</trkpt>
<trkpt lat="46.576160000" lon="-70.829180000">
<ele>0</ele>
<time>2026-09-04T06:27:20Z</time>
</trkpt>
<trkpt lat="46.575690000" lon="-70.829260000">
<ele>0</ele>
<time>2026-09-04T06:27:21Z</time>
</trkpt>
<trkpt lat="46.574780000" lon="-70.829520000">
<ele>0</ele>
<time>2026-09-04T06:27:22Z</time>
</trkpt>
<trkpt lat="46.573220000" lon="-70.830110000">
<ele>0</ele>
<time>2026-09-04T06:27:23Z</time>
</trkpt>
<trkpt lat="46.564280000" lon="-70.833410000">
<ele>0</ele>
<time>2026-09-04T06:27:24Z</time>
</trkpt>
<trkpt lat="46.560380000" lon="-70.834840000">
<ele>0</ele>
<time>2026-09-04T06:27:25Z</time>
</trkpt>
<trkpt lat="46.559590000" lon="-70.835090000">
<ele>0</ele>
<time>2026-09-04T06:27:26Z</time>
</trkpt>
<trkpt lat="46.559320000" lon="-70.835150000">
<ele>0</ele>
<time>2026-09-04T06:27:27Z</time>
</trkpt>
<trkpt lat="46.559100000" lon="-70.835160000">
<ele>0</ele>
<time>2026-09-04T06:27:28Z</time>
</trkpt>
<trkpt lat="46.558660000" lon="-70.835150000">
<ele>0</ele>
<time>2026-09-04T06:27:29Z</time>
</trkpt>
<trkpt lat="46.558290000" lon="-70.835070000">
<ele>0</ele>
<time>2026-09-04T06:27:30Z</time>
</trkpt>
<trkpt lat="46.557910000" lon="-70.834950000">
<ele>0</ele>
<time>2026-09-04T06:27:31Z</time>
</trkpt>
<trkpt lat="46.557180000" lon="-70.834560000">
<ele>0</ele>
<time>2026-09-04T06:27:32Z</time>
</trkpt>
<trkpt lat="46.556850000" lon="-70.834310000">
<ele>0</ele>
<time>2026-09-04T06:27:33Z</time>
</trkpt>
<trkpt lat="46.556630000" lon="-70.834080000">
<ele>0</ele>
<time>2026-09-04T06:27:34Z</time>
</trkpt>
<trkpt lat="46.556270000" lon="-70.833670000">
<ele>0</ele>
<time>2026-09-04T06:27:35Z</time>
</trkpt>
<trkpt lat="46.555730000" lon="-70.832900000">
<ele>0</ele>
<time>2026-09-04T06:27:36Z</time>
</trkpt>
<trkpt lat="46.554910000" lon="-70.831590000">
<ele>0</ele>
<time>2026-09-04T06:27:37Z</time>
</trkpt>
<trkpt lat="46.553940000" lon="-70.830190000">
<ele>0</ele>
<time>2026-09-04T06:27:38Z</time>
</trkpt>
<trkpt lat="46.548730000" lon="-70.822670000">
<ele>0</ele>
<time>2026-09-04T06:27:39Z</time>
</trkpt>
<trkpt lat="46.546290000" lon="-70.819230000">
<ele>0</ele>
<time>2026-09-04T06:27:40Z</time>
</trkpt>
<trkpt lat="46.544810000" lon="-70.817030000">
<ele>0</ele>
<time>2026-09-04T06:27:41Z</time>
</trkpt>
<trkpt lat="46.543160000" lon="-70.814850000">
<ele>0</ele>
<time>2026-09-04T06:27:42Z</time>
</trkpt>
<trkpt lat="46.541060000" lon="-70.811620000">
<ele>0</ele>
<time>2026-09-04T06:27:43Z</time>
</trkpt>
<trkpt lat="46.539320000" lon="-70.809130000">
<ele>0</ele>
<time>2026-09-04T06:27:44Z</time>
</trkpt>
<trkpt lat="46.538980000" lon="-70.808640000">
<ele>0</ele>
<time>2026-09-04T06:27:45Z</time>
</trkpt>
<trkpt lat="46.538750000" lon="-70.808240000">
<ele>0</ele>
<time>2026-09-04T06:27:46Z</time>
</trkpt>
<trkpt lat="46.538540000" lon="-70.807750000">
<ele>0</ele>
<time>2026-09-04T06:27:47Z</time>
</trkpt>
<trkpt lat="46.538440000" lon="-70.807360000">
<ele>0</ele>
<time>2026-09-04T06:27:48Z</time>
</trkpt>
<trkpt lat="46.538040000" lon="-70.805500000">
<ele>0</ele>
<time>2026-09-04T06:27:49Z</time>
</trkpt>
<trkpt lat="46.536300000" lon="-70.797860000">
<ele>0</ele>
<time>2026-09-04T06:27:50Z</time>
</trkpt>
<trkpt lat="46.535350000" lon="-70.793790000">
<ele>0</ele>
<time>2026-09-04T06:27:51Z</time>
</trkpt>
<trkpt lat="46.535260000" lon="-70.793100000">
<ele>0</ele>
<time>2026-09-04T06:27:52Z</time>
</trkpt>
<trkpt lat="46.535250000" lon="-70.792510000">
<ele>0</ele>
<time>2026-09-04T06:27:53Z</time>
</trkpt>
<trkpt lat="46.535280000" lon="-70.791820000">
<ele>0</ele>
<time>2026-09-04T06:27:54Z</time>
</trkpt>
<trkpt lat="46.535330000" lon="-70.791540000">
<ele>0</ele>
<time>2026-09-04T06:27:55Z</time>
</trkpt>
<trkpt lat="46.535270000" lon="-70.791120000">
<ele>0</ele>
<time>2026-09-04T06:27:56Z</time>
</trkpt>
<trkpt lat="46.535180000" lon="-70.790760000">
<ele>0</ele>
<time>2026-09-04T06:27:57Z</time>
</trkpt>
<trkpt lat="46.534950000" lon="-70.790240000">
<ele>0</ele>
<time>2026-09-04T06:27:58Z</time>
</trkpt>
<trkpt lat="46.534730000" lon="-70.789460000">
<ele>0</ele>
<time>2026-09-04T06:27:59Z</time>
</trkpt>
<trkpt lat="46.534650000" lon="-70.789030000">
<ele>0</ele>
<time>2026-09-04T06:28:00Z</time>
</trkpt>
<trkpt lat="46.534630000" lon="-70.788760000">
<ele>0</ele>
<time>2026-09-04T06:28:01Z</time>
</trkpt>
<trkpt lat="46.534630000" lon="-70.788470000">
<ele>0</ele>
<time>2026-09-04T06:28:02Z</time>
</trkpt>
<trkpt lat="46.534690000" lon="-70.788060000">
<ele>0</ele>
<time>2026-09-04T06:28:03Z</time>
</trkpt>
<trkpt lat="46.534780000" lon="-70.787680000">
<ele>0</ele>
<time>2026-09-04T06:28:04Z</time>
</trkpt>
<trkpt lat="46.534680000" lon="-70.787610000">
<ele>0</ele>
<time>2026-09-04T06:28:05Z</time>
</trkpt>
<trkpt lat="46.534680000" lon="-70.787610000">
<ele>0</ele>
<time>2026-09-04T06:28:06Z</time>
</trkpt>
<trkpt lat="46.534470000" lon="-70.787480000">
<ele>0</ele>
<time>2026-09-04T06:28:07Z</time>
</trkpt>
<trkpt lat="46.534020000" lon="-70.787380000">
<ele>0</ele>
<time>2026-09-04T06:28:08Z</time>
</trkpt>
<trkpt lat="46.533380000" lon="-70.787270000">
<ele>0</ele>
<time>2026-09-04T06:28:09Z</time>
</trkpt>
<trkpt lat="46.533440000" lon="-70.787190000">
<ele>0</ele>
<time>2026-09-04T06:28:10Z</time>
</trkpt>
<trkpt lat="46.533440000" lon="-70.787190000">
<ele>0</ele>
<time>2026-09-04T06:28:11Z</time>
</trkpt>
<trkpt lat="46.533700000" lon="-70.786830000">
<ele>0</ele>
<time>2026-09-04T06:28:12Z</time>
</trkpt>
<trkpt lat="46.534470000" lon="-70.785600000">
<ele>0</ele>
<time>2026-09-04T06:28:13Z</time>
</trkpt>
<trkpt lat="46.535330000" lon="-70.784270000">
<ele>0</ele>
<time>2026-09-04T06:28:14Z</time>
</trkpt>
<trkpt lat="46.535590000" lon="-70.783860000">
<ele>0</ele>
<time>2026-09-04T06:28:15Z</time>
</trkpt>
<trkpt lat="46.535660000" lon="-70.783900000">
<ele>0</ele>
<time>2026-09-04T06:28:16Z</time>
</trkpt>
<trkpt lat="46.535660000" lon="-70.783900000">
<ele>0</ele>
<time>2026-09-04T06:28:17Z</time>
</trkpt>
<trkpt lat="46.537510000" lon="-70.784990000">
<ele>0</ele>
<time>2026-09-04T06:28:18Z</time>
</trkpt>
<trkpt lat="46.537930000" lon="-70.785310000">
<ele>0</ele>
<time>2026-09-04T06:28:19Z</time>
</trkpt>
<trkpt lat="46.538070000" lon="-70.785440000">
<ele>0</ele>
<time>2026-09-04T06:28:20Z</time>
</trkpt>
<trkpt lat="46.538390000" lon="-70.785800000">
<ele>0</ele>
<time>2026-09-04T06:28:21Z</time>
</trkpt>
<trkpt lat="46.538680000" lon="-70.786260000">
<ele>0</ele>
<time>2026-09-04T06:28:22Z</time>
</trkpt>
<trkpt lat="46.538750000" lon="-70.786210000">
<ele>0</ele>
<time>2026-09-04T06:28:23Z</time>
</trkpt>
<trkpt lat="46.538750000" lon="-70.786210000">
<ele>0</ele>
<time>2026-09-04T06:28:24Z</time>
</trkpt>
<trkpt lat="46.539480000" lon="-70.785730000">
<ele>0</ele>
<time>2026-09-04T06:28:25Z</time>
</trkpt>
<trkpt lat="46.539580000" lon="-70.786290000">
<ele>0</ele>
<time>2026-09-04T06:28:26Z</time>
</trkpt>
<trkpt lat="46.539590000" lon="-70.786360000">
<ele>0</ele>
<time>2026-09-04T06:28:27Z</time>
</trkpt>
<trkpt lat="46.540050000" lon="-70.786260000">
<ele>0</ele>
<time>2026-09-04T06:28:28Z</time>
</trkpt>
<trkpt lat="46.540240000" lon="-70.786250000">
<ele>0</ele>
<time>2026-09-04T06:28:29Z</time>
</trkpt>
<trkpt lat="46.540350000" lon="-70.786290000">
<ele>0</ele>
<time>2026-09-04T06:28:30Z</time>
</trkpt>
<trkpt lat="46.540670000" lon="-70.786510000">
<ele>0</ele>
<time>2026-09-04T06:28:31Z</time>
</trkpt>
<trkpt lat="46.542050000" lon="-70.787100000">
<ele>0</ele>
<time>2026-09-04T06:28:32Z</time>
</trkpt>
<trkpt lat="46.542910000" lon="-70.787440000">
<ele>0</ele>
<time>2026-09-04T06:28:33Z</time>
</trkpt>
<trkpt lat="46.543060000" lon="-70.787540000">
<ele>0</ele>
<time>2026-09-04T06:28:34Z</time>
</trkpt>
<trkpt lat="46.543610000" lon="-70.787980000">
<ele>0</ele>
<time>2026-09-04T06:28:35Z</time>
</trkpt>
<trkpt lat="46.544640000" lon="-70.788840000">
<ele>0</ele>
<time>2026-09-04T06:28:36Z</time>
</trkpt>
<trkpt lat="46.545500000" lon="-70.789590000">
<ele>0</ele>
<time>2026-09-04T06:28:37Z</time>
</trkpt>
<trkpt lat="46.546320000" lon="-70.790270000">
<ele>0</ele>
<time>2026-09-04T06:28:38Z</time>
</trkpt>
<trkpt lat="46.546970000" lon="-70.790900000">
<ele>0</ele>
<time>2026-09-04T06:28:39Z</time>
</trkpt>
<trkpt lat="46.547420000" lon="-70.791500000">
<ele>0</ele>
<time>2026-09-04T06:28:40Z</time>
</trkpt>
<trkpt lat="46.547740000" lon="-70.792030000">
<ele>0</ele>
<time>2026-09-04T06:28:41Z</time>
</trkpt>
<trkpt lat="46.548050000" lon="-70.792630000">
<ele>0</ele>
<time>2026-09-04T06:28:42Z</time>
</trkpt>
<trkpt lat="46.548330000" lon="-70.793310000">
<ele>0</ele>
<time>2026-09-04T06:28:43Z</time>
</trkpt>
<trkpt lat="46.548540000" lon="-70.793950000">
<ele>0</ele>
<time>2026-09-04T06:28:44Z</time>
</trkpt>
<trkpt lat="46.550170000" lon="-70.798700000">
<ele>0</ele>
<time>2026-09-04T06:28:45Z</time>
</trkpt>
<trkpt lat="46.550570000" lon="-70.799670000">
<ele>0</ele>
<time>2026-09-04T06:28:46Z</time>
</trkpt>
<trkpt lat="46.550820000" lon="-70.800100000">
<ele>0</ele>
<time>2026-09-04T06:28:47Z</time>
</trkpt>
<trkpt lat="46.551220000" lon="-70.800690000">
<ele>0</ele>
<time>2026-09-04T06:28:48Z</time>
</trkpt>
<trkpt lat="46.551640000" lon="-70.801160000">
<ele>0</ele>
<time>2026-09-04T06:28:49Z</time>
</trkpt>
<trkpt lat="46.551880000" lon="-70.801380000">
<ele>0</ele>
<time>2026-09-04T06:28:50Z</time>
</trkpt>
<trkpt lat="46.554980000" lon="-70.803590000">
<ele>0</ele>
<time>2026-09-04T06:28:51Z</time>
</trkpt>
<trkpt lat="46.556260000" lon="-70.804530000">
<ele>0</ele>
<time>2026-09-04T06:28:52Z</time>
</trkpt>
<trkpt lat="46.557120000" lon="-70.805340000">
<ele>0</ele>
<time>2026-09-04T06:28:53Z</time>
</trkpt>
<trkpt lat="46.557780000" lon="-70.806080000">
<ele>0</ele>
<time>2026-09-04T06:28:54Z</time>
</trkpt>
<trkpt lat="46.558200000" lon="-70.806680000">
<ele>0</ele>
<time>2026-09-04T06:28:55Z</time>
</trkpt>
<trkpt lat="46.558950000" lon="-70.808040000">
<ele>0</ele>
<time>2026-09-04T06:28:56Z</time>
</trkpt>
<trkpt lat="46.561430000" lon="-70.813910000">
<ele>0</ele>
<time>2026-09-04T06:28:57Z</time>
</trkpt>
<trkpt lat="46.562050000" lon="-70.814940000">
<ele>0</ele>
<time>2026-09-04T06:28:58Z</time>
</trkpt>
<trkpt lat="46.562540000" lon="-70.815370000">
<ele>0</ele>
<time>2026-09-04T06:28:59Z</time>
</trkpt>
<trkpt lat="46.562740000" lon="-70.815480000">
<ele>0</ele>
<time>2026-09-04T06:29:00Z</time>
</trkpt>
<trkpt lat="46.563140000" lon="-70.815630000">
<ele>0</ele>
<time>2026-09-04T06:29:01Z</time>
</trkpt>
<trkpt lat="46.563810000" lon="-70.815730000">
<ele>0</ele>
<time>2026-09-04T06:29:02Z</time>
</trkpt>
<trkpt lat="46.564110000" lon="-70.815680000">
<ele>0</ele>
<time>2026-09-04T06:29:03Z</time>
</trkpt>
<trkpt lat="46.564410000" lon="-70.815610000">
<ele>0</ele>
<time>2026-09-04T06:29:04Z</time>
</trkpt>
<trkpt lat="46.570350000" lon="-70.813720000">
<ele>0</ele>
<time>2026-09-04T06:29:05Z</time>
</trkpt>
<trkpt lat="46.571110000" lon="-70.813020000">
<ele>0</ele>
<time>2026-09-04T06:29:06Z</time>
</trkpt>
<trkpt lat="46.571770000" lon="-70.811930000">
<ele>0</ele>
<time>2026-09-04T06:29:07Z</time>
</trkpt>
<trkpt lat="46.573520000" lon="-70.805960000">
<ele>0</ele>
<time>2026-09-04T06:29:08Z</time>
</trkpt>
<trkpt lat="46.574060000" lon="-70.804630000">
<ele>0</ele>
<time>2026-09-04T06:29:09Z</time>
</trkpt>
<trkpt lat="46.574140000" lon="-70.804510000">
<ele>0</ele>
<time>2026-09-04T06:29:10Z</time>
</trkpt>
<trkpt lat="46.574400000" lon="-70.804230000">
<ele>0</ele>
<time>2026-09-04T06:29:11Z</time>
</trkpt>
<trkpt lat="46.574690000" lon="-70.803930000">
<ele>0</ele>
<time>2026-09-04T06:29:12Z</time>
</trkpt>
<trkpt lat="46.575220000" lon="-70.803550000">
<ele>0</ele>
<time>2026-09-04T06:29:13Z</time>
</trkpt>
<trkpt lat="46.575450000" lon="-70.803450000">
<ele>0</ele>
<time>2026-09-04T06:29:14Z</time>
</trkpt>
<trkpt lat="46.575800000" lon="-70.803400000">
<ele>0</ele>
<time>2026-09-04T06:29:15Z</time>
</trkpt>
<trkpt lat="46.579360000" lon="-70.802680000">
<ele>0</ele>
<time>2026-09-04T06:29:16Z</time>
</trkpt>
<trkpt lat="46.579910000" lon="-70.802400000">
<ele>0</ele>
<time>2026-09-04T06:29:17Z</time>
</trkpt>
<trkpt lat="46.580560000" lon="-70.801660000">
<ele>0</ele>
<time>2026-09-04T06:29:18Z</time>
</trkpt>
<trkpt lat="46.580970000" lon="-70.800870000">
<ele>0</ele>
<time>2026-09-04T06:29:19Z</time>
</trkpt>
<trkpt lat="46.583610000" lon="-70.792200000">
<ele>0</ele>
<time>2026-09-04T06:29:20Z</time>
</trkpt>
<trkpt lat="46.584800000" lon="-70.788570000">
<ele>0</ele>
<time>2026-09-04T06:29:21Z</time>
</trkpt>
<trkpt lat="46.585090000" lon="-70.787660000">
<ele>0</ele>
<time>2026-09-04T06:29:22Z</time>
</trkpt>
<trkpt lat="46.585280000" lon="-70.786830000">
<ele>0</ele>
<time>2026-09-04T06:29:23Z</time>
</trkpt>
<trkpt lat="46.585450000" lon="-70.785790000">
<ele>0</ele>
<time>2026-09-04T06:29:24Z</time>
</trkpt>
<trkpt lat="46.585590000" lon="-70.784490000">
<ele>0</ele>
<time>2026-09-04T06:29:25Z</time>
</trkpt>
<trkpt lat="46.585600000" lon="-70.783780000">
<ele>0</ele>
<time>2026-09-04T06:29:26Z</time>
</trkpt>
<trkpt lat="46.585570000" lon="-70.782650000">
<ele>0</ele>
<time>2026-09-04T06:29:27Z</time>
</trkpt>
<trkpt lat="46.585430000" lon="-70.781210000">
<ele>0</ele>
<time>2026-09-04T06:29:28Z</time>
</trkpt>
<trkpt lat="46.585240000" lon="-70.780130000">
<ele>0</ele>
<time>2026-09-04T06:29:29Z</time>
</trkpt>
<trkpt lat="46.584720000" lon="-70.778360000">
<ele>0</ele>
<time>2026-09-04T06:29:30Z</time>
</trkpt>
<trkpt lat="46.584450000" lon="-70.777670000">
<ele>0</ele>
<time>2026-09-04T06:29:31Z</time>
</trkpt>
<trkpt lat="46.583030000" lon="-70.774460000">
<ele>0</ele>
<time>2026-09-04T06:29:32Z</time>
</trkpt>
<trkpt lat="46.580310000" lon="-70.768500000">
<ele>0</ele>
<time>2026-09-04T06:29:33Z</time>
</trkpt>
<trkpt lat="46.580020000" lon="-70.767810000">
<ele>0</ele>
<time>2026-09-04T06:29:34Z</time>
</trkpt>
<trkpt lat="46.579800000" lon="-70.767050000">
<ele>0</ele>
<time>2026-09-04T06:29:35Z</time>
</trkpt>
<trkpt lat="46.579730000" lon="-70.766730000">
<ele>0</ele>
<time>2026-09-04T06:29:36Z</time>
</trkpt>
<trkpt lat="46.579710000" lon="-70.766330000">
<ele>0</ele>
<time>2026-09-04T06:29:37Z</time>
</trkpt>
<trkpt lat="46.579710000" lon="-70.765540000">
<ele>0</ele>
<time>2026-09-04T06:29:38Z</time>
</trkpt>
<trkpt lat="46.579840000" lon="-70.764780000">
<ele>0</ele>
<time>2026-09-04T06:29:39Z</time>
</trkpt>
<trkpt lat="46.579900000" lon="-70.764460000">
<ele>0</ele>
<time>2026-09-04T06:29:40Z</time>
</trkpt>
<trkpt lat="46.580120000" lon="-70.763900000">
<ele>0</ele>
<time>2026-09-04T06:29:41Z</time>
</trkpt>
<trkpt lat="46.580540000" lon="-70.763200000">
<ele>0</ele>
<time>2026-09-04T06:29:42Z</time>
</trkpt>
<trkpt lat="46.580760000" lon="-70.762950000">
<ele>0</ele>
<time>2026-09-04T06:29:43Z</time>
</trkpt>
<trkpt lat="46.581020000" lon="-70.762710000">
<ele>0</ele>
<time>2026-09-04T06:29:44Z</time>
</trkpt>
<trkpt lat="46.581360000" lon="-70.762480000">
<ele>0</ele>
<time>2026-09-04T06:29:45Z</time>
</trkpt>
<trkpt lat="46.582560000" lon="-70.761870000">
<ele>0</ele>
<time>2026-09-04T06:29:46Z</time>
</trkpt>
<trkpt lat="46.588620000" lon="-70.758620000">
<ele>0</ele>
<time>2026-09-04T06:29:47Z</time>
</trkpt>
<trkpt lat="46.588880000" lon="-70.758410000">
<ele>0</ele>
<time>2026-09-04T06:29:48Z</time>
</trkpt>
<trkpt lat="46.589490000" lon="-70.757700000">
<ele>0</ele>
<time>2026-09-04T06:29:49Z</time>
</trkpt>
<trkpt lat="46.589820000" lon="-70.757210000">
<ele>0</ele>
<time>2026-09-04T06:29:50Z</time>
</trkpt>
<trkpt lat="46.590030000" lon="-70.756720000">
<ele>0</ele>
<time>2026-09-04T06:29:51Z</time>
</trkpt>
<trkpt lat="46.590190000" lon="-70.756300000">
<ele>0</ele>
<time>2026-09-04T06:29:52Z</time>
</trkpt>
<trkpt lat="46.590340000" lon="-70.755650000">
<ele>0</ele>
<time>2026-09-04T06:29:53Z</time>
</trkpt>
<trkpt lat="46.590440000" lon="-70.754870000">
<ele>0</ele>
<time>2026-09-04T06:29:54Z</time>
</trkpt>
<trkpt lat="46.590610000" lon="-70.753060000">
<ele>0</ele>
<time>2026-09-04T06:29:55Z</time>
</trkpt>
<trkpt lat="46.590750000" lon="-70.750950000">
<ele>0</ele>
<time>2026-09-04T06:29:56Z</time>
</trkpt>
<trkpt lat="46.591090000" lon="-70.747660000">
<ele>0</ele>
<time>2026-09-04T06:29:57Z</time>
</trkpt>
<trkpt lat="46.591190000" lon="-70.747210000">
<ele>0</ele>
<time>2026-09-04T06:29:58Z</time>
</trkpt>
<trkpt lat="46.591760000" lon="-70.745650000">
<ele>0</ele>
<time>2026-09-04T06:29:59Z</time>
</trkpt>
<trkpt lat="46.592320000" lon="-70.744180000">
<ele>0</ele>
<time>2026-09-04T06:30:00Z</time>
</trkpt>
<trkpt lat="46.592710000" lon="-70.743080000">
<ele>0</ele>
<time>2026-09-04T06:30:01Z</time>
</trkpt>
<trkpt lat="46.593180000" lon="-70.741890000">
<ele>0</ele>
<time>2026-09-04T06:30:02Z</time>
</trkpt>
<trkpt lat="46.599050000" lon="-70.726280000">
<ele>0</ele>
<time>2026-09-04T06:30:03Z</time>
</trkpt>
<trkpt lat="46.599230000" lon="-70.725930000">
<ele>0</ele>
<time>2026-09-04T06:30:04Z</time>
</trkpt>
<trkpt lat="46.599710000" lon="-70.725210000">
<ele>0</ele>
<time>2026-09-04T06:30:05Z</time>
</trkpt>
<trkpt lat="46.600240000" lon="-70.724660000">
<ele>0</ele>
<time>2026-09-04T06:30:06Z</time>
</trkpt>
<trkpt lat="46.601170000" lon="-70.724050000">
<ele>0</ele>
<time>2026-09-04T06:30:07Z</time>
</trkpt>
<trkpt lat="46.602810000" lon="-70.723480000">
<ele>0</ele>
<time>2026-09-04T06:30:08Z</time>
</trkpt>
<trkpt lat="46.605750000" lon="-70.722510000">
<ele>0</ele>
<time>2026-09-04T06:30:09Z</time>
</trkpt>
<trkpt lat="46.610190000" lon="-70.721030000">
<ele>0</ele>
<time>2026-09-04T06:30:10Z</time>
</trkpt>
<trkpt lat="46.612910000" lon="-70.720290000">
<ele>0</ele>
<time>2026-09-04T06:30:11Z</time>
</trkpt>
<trkpt lat="46.616370000" lon="-70.719760000">
<ele>0</ele>
<time>2026-09-04T06:30:12Z</time>
</trkpt>
<trkpt lat="46.616410000" lon="-70.719810000">
<ele>0</ele>
<time>2026-09-04T06:30:13Z</time>
</trkpt>
<trkpt lat="46.616460000" lon="-70.719830000">
<ele>0</ele>
<time>2026-09-04T06:30:14Z</time>
</trkpt>
<trkpt lat="46.616650000" lon="-70.719800000">
<ele>0</ele>
<time>2026-09-04T06:30:15Z</time>
</trkpt>
<trkpt lat="46.616650000" lon="-70.719800000">
<ele>0</ele>
<time>2026-09-04T06:30:16Z</time>
</trkpt>
<trkpt lat="46.616580000" lon="-70.719810000">
<ele>0</ele>
<time>2026-09-04T06:30:17Z</time>
</trkpt>
<trkpt lat="46.616580000" lon="-70.719810000">
<ele>0</ele>
<time>2026-09-04T06:30:18Z</time>
</trkpt>
<trkpt lat="46.616460000" lon="-70.719830000">
<ele>0</ele>
<time>2026-09-04T06:30:19Z</time>
</trkpt>
<trkpt lat="46.616410000" lon="-70.719810000">
<ele>0</ele>
<time>2026-09-04T06:30:20Z</time>
</trkpt>
<trkpt lat="46.616370000" lon="-70.719760000">
<ele>0</ele>
<time>2026-09-04T06:30:21Z</time>
</trkpt>
<trkpt lat="46.615980000" lon="-70.719820000">
<ele>0</ele>
<time>2026-09-04T06:30:22Z</time>
</trkpt>
<trkpt lat="46.615980000" lon="-70.719820000">
<ele>0</ele>
<time>2026-09-04T06:30:23Z</time>
</trkpt>
<trkpt lat="46.612910000" lon="-70.720290000">
<ele>0</ele>
<time>2026-09-04T06:30:24Z</time>
</trkpt>
<trkpt lat="46.610190000" lon="-70.721030000">
<ele>0</ele>
<time>2026-09-04T06:30:25Z</time>
</trkpt>
<trkpt lat="46.605750000" lon="-70.722510000">
<ele>0</ele>
<time>2026-09-04T06:30:26Z</time>
</trkpt>
<trkpt lat="46.602810000" lon="-70.723480000">
<ele>0</ele>
<time>2026-09-04T06:30:27Z</time>
</trkpt>
<trkpt lat="46.601170000" lon="-70.724050000">
<ele>0</ele>
<time>2026-09-04T06:30:28Z</time>
</trkpt>
<trkpt lat="46.600240000" lon="-70.724660000">
<ele>0</ele>
<time>2026-09-04T06:30:29Z</time>
</trkpt>
<trkpt lat="46.599710000" lon="-70.725210000">
<ele>0</ele>
<time>2026-09-04T06:30:30Z</time>
</trkpt>
<trkpt lat="46.599230000" lon="-70.725930000">
<ele>0</ele>
<time>2026-09-04T06:30:31Z</time>
</trkpt>
<trkpt lat="46.599050000" lon="-70.726280000">
<ele>0</ele>
<time>2026-09-04T06:30:32Z</time>
</trkpt>
<trkpt lat="46.593180000" lon="-70.741890000">
<ele>0</ele>
<time>2026-09-04T06:30:33Z</time>
</trkpt>
<trkpt lat="46.592710000" lon="-70.743080000">
<ele>0</ele>
<time>2026-09-04T06:30:34Z</time>
</trkpt>
<trkpt lat="46.592320000" lon="-70.744180000">
<ele>0</ele>
<time>2026-09-04T06:30:35Z</time>
</trkpt>
<trkpt lat="46.591760000" lon="-70.745650000">
<ele>0</ele>
<time>2026-09-04T06:30:36Z</time>
</trkpt>
<trkpt lat="46.591190000" lon="-70.747210000">
<ele>0</ele>
<time>2026-09-04T06:30:37Z</time>
</trkpt>
<trkpt lat="46.591090000" lon="-70.747660000">
<ele>0</ele>
<time>2026-09-04T06:30:38Z</time>
</trkpt>
<trkpt lat="46.590750000" lon="-70.750950000">
<ele>0</ele>
<time>2026-09-04T06:30:39Z</time>
</trkpt>
<trkpt lat="46.590610000" lon="-70.753060000">
<ele>0</ele>
<time>2026-09-04T06:30:40Z</time>
</trkpt>
<trkpt lat="46.590440000" lon="-70.754870000">
<ele>0</ele>
<time>2026-09-04T06:30:41Z</time>
</trkpt>
<trkpt lat="46.590340000" lon="-70.755650000">
<ele>0</ele>
<time>2026-09-04T06:30:42Z</time>
</trkpt>
<trkpt lat="46.590190000" lon="-70.756300000">
<ele>0</ele>
<time>2026-09-04T06:30:43Z</time>
</trkpt>
<trkpt lat="46.590030000" lon="-70.756720000">
<ele>0</ele>
<time>2026-09-04T06:30:44Z</time>
</trkpt>
<trkpt lat="46.589820000" lon="-70.757210000">
<ele>0</ele>
<time>2026-09-04T06:30:45Z</time>
</trkpt>
<trkpt lat="46.589490000" lon="-70.757700000">
<ele>0</ele>
<time>2026-09-04T06:30:46Z</time>
</trkpt>
<trkpt lat="46.588880000" lon="-70.758410000">
<ele>0</ele>
<time>2026-09-04T06:30:47Z</time>
</trkpt>
<trkpt lat="46.588620000" lon="-70.758620000">
<ele>0</ele>
<time>2026-09-04T06:30:48Z</time>
</trkpt>
<trkpt lat="46.582560000" lon="-70.761870000">
<ele>0</ele>
<time>2026-09-04T06:30:49Z</time>
</trkpt>
<trkpt lat="46.581360000" lon="-70.762480000">
<ele>0</ele>
<time>2026-09-04T06:30:50Z</time>
</trkpt>
<trkpt lat="46.581020000" lon="-70.762710000">
<ele>0</ele>
<time>2026-09-04T06:30:51Z</time>
</trkpt>
<trkpt lat="46.580760000" lon="-70.762950000">
<ele>0</ele>
<time>2026-09-04T06:30:52Z</time>
</trkpt>
<trkpt lat="46.580540000" lon="-70.763200000">
<ele>0</ele>
<time>2026-09-04T06:30:53Z</time>
</trkpt>
<trkpt lat="46.580120000" lon="-70.763900000">
<ele>0</ele>
<time>2026-09-04T06:30:54Z</time>
</trkpt>
<trkpt lat="46.579900000" lon="-70.764460000">
<ele>0</ele>
<time>2026-09-04T06:30:55Z</time>
</trkpt>
<trkpt lat="46.579840000" lon="-70.764780000">
<ele>0</ele>
<time>2026-09-04T06:30:56Z</time>
</trkpt>
<trkpt lat="46.579710000" lon="-70.765540000">
<ele>0</ele>
<time>2026-09-04T06:30:57Z</time>
</trkpt>
<trkpt lat="46.579710000" lon="-70.766330000">
<ele>0</ele>
<time>2026-09-04T06:30:58Z</time>
</trkpt>
<trkpt lat="46.579730000" lon="-70.766730000">
<ele>0</ele>
<time>2026-09-04T06:30:59Z</time>
</trkpt>
<trkpt lat="46.579800000" lon="-70.767050000">
<ele>0</ele>
<time>2026-09-04T06:31:00Z</time>
</trkpt>
<trkpt lat="46.580020000" lon="-70.767810000">
<ele>0</ele>
<time>2026-09-04T06:31:01Z</time>
</trkpt>
<trkpt lat="46.580310000" lon="-70.768500000">
<ele>0</ele>
<time>2026-09-04T06:31:02Z</time>
</trkpt>
<trkpt lat="46.583030000" lon="-70.774460000">
<ele>0</ele>
<time>2026-09-04T06:31:03Z</time>
</trkpt>
<trkpt lat="46.584450000" lon="-70.777670000">
<ele>0</ele>
<time>2026-09-04T06:31:04Z</time>
</trkpt>
<trkpt lat="46.584720000" lon="-70.778360000">
<ele>0</ele>
<time>2026-09-04T06:31:05Z</time>
</trkpt>
<trkpt lat="46.585240000" lon="-70.780130000">
<ele>0</ele>
<time>2026-09-04T06:31:06Z</time>
</trkpt>
<trkpt lat="46.585430000" lon="-70.781210000">
<ele>0</ele>
<time>2026-09-04T06:31:07Z</time>
</trkpt>
<trkpt lat="46.585570000" lon="-70.782650000">
<ele>0</ele>
<time>2026-09-04T06:31:08Z</time>
</trkpt>
<trkpt lat="46.585600000" lon="-70.783780000">
<ele>0</ele>
<time>2026-09-04T06:31:09Z</time>
</trkpt>
<trkpt lat="46.585590000" lon="-70.784490000">
<ele>0</ele>
<time>2026-09-04T06:31:10Z</time>
</trkpt>
<trkpt lat="46.585450000" lon="-70.785790000">
<ele>0</ele>
<time>2026-09-04T06:31:11Z</time>
</trkpt>
<trkpt lat="46.585280000" lon="-70.786830000">
<ele>0</ele>
<time>2026-09-04T06:31:12Z</time>
</trkpt>
<trkpt lat="46.585090000" lon="-70.787660000">
<ele>0</ele>
<time>2026-09-04T06:31:13Z</time>
</trkpt>
<trkpt lat="46.584800000" lon="-70.788570000">
<ele>0</ele>
<time>2026-09-04T06:31:14Z</time>
</trkpt>
<trkpt lat="46.583610000" lon="-70.792200000">
<ele>0</ele>
<time>2026-09-04T06:31:15Z</time>
</trkpt>
<trkpt lat="46.580970000" lon="-70.800870000">
<ele>0</ele>
<time>2026-09-04T06:31:16Z</time>
</trkpt>
<trkpt lat="46.580560000" lon="-70.801660000">
<ele>0</ele>
<time>2026-09-04T06:31:17Z</time>
</trkpt>
<trkpt lat="46.579910000" lon="-70.802400000">
<ele>0</ele>
<time>2026-09-04T06:31:18Z</time>
</trkpt>
<trkpt lat="46.579360000" lon="-70.802680000">
<ele>0</ele>
<time>2026-09-04T06:31:19Z</time>
</trkpt>
<trkpt lat="46.575800000" lon="-70.803400000">
<ele>0</ele>
<time>2026-09-04T06:31:20Z</time>
</trkpt>
<trkpt lat="46.575450000" lon="-70.803450000">
<ele>0</ele>
<time>2026-09-04T06:31:21Z</time>
</trkpt>
<trkpt lat="46.575220000" lon="-70.803550000">
<ele>0</ele>
<time>2026-09-04T06:31:22Z</time>
</trkpt>
<trkpt lat="46.574690000" lon="-70.803930000">
<ele>0</ele>
<time>2026-09-04T06:31:23Z</time>
</trkpt>
<trkpt lat="46.574400000" lon="-70.804230000">
<ele>0</ele>
<time>2026-09-04T06:31:24Z</time>
</trkpt>
<trkpt lat="46.574140000" lon="-70.804510000">
<ele>0</ele>
<time>2026-09-04T06:31:25Z</time>
</trkpt>
<trkpt lat="46.574060000" lon="-70.804630000">
<ele>0</ele>
<time>2026-09-04T06:31:26Z</time>
</trkpt>
<trkpt lat="46.573520000" lon="-70.805960000">
<ele>0</ele>
<time>2026-09-04T06:31:27Z</time>
</trkpt>
<trkpt lat="46.571770000" lon="-70.811930000">
<ele>0</ele>
<time>2026-09-04T06:31:28Z</time>
</trkpt>
<trkpt lat="46.571110000" lon="-70.813020000">
<ele>0</ele>
<time>2026-09-04T06:31:29Z</time>
</trkpt>
<trkpt lat="46.570350000" lon="-70.813720000">
<ele>0</ele>
<time>2026-09-04T06:31:30Z</time>
</trkpt>
<trkpt lat="46.564410000" lon="-70.815610000">
<ele>0</ele>
<time>2026-09-04T06:31:31Z</time>
</trkpt>
<trkpt lat="46.564110000" lon="-70.815680000">
<ele>0</ele>
<time>2026-09-04T06:31:32Z</time>
</trkpt>
<trkpt lat="46.563810000" lon="-70.815730000">
<ele>0</ele>
<time>2026-09-04T06:31:33Z</time>
</trkpt>
<trkpt lat="46.563140000" lon="-70.815630000">
<ele>0</ele>
<time>2026-09-04T06:31:34Z</time>
</trkpt>
<trkpt lat="46.562740000" lon="-70.815480000">
<ele>0</ele>
<time>2026-09-04T06:31:35Z</time>
</trkpt>
<trkpt lat="46.562540000" lon="-70.815370000">
<ele>0</ele>
<time>2026-09-04T06:31:36Z</time>
</trkpt>
<trkpt lat="46.562050000" lon="-70.814940000">
<ele>0</ele>
<time>2026-09-04T06:31:37Z</time>
</trkpt>
<trkpt lat="46.561430000" lon="-70.813910000">
<ele>0</ele>
<time>2026-09-04T06:31:38Z</time>
</trkpt>
<trkpt lat="46.558950000" lon="-70.808040000">
<ele>0</ele>
<time>2026-09-04T06:31:39Z</time>
</trkpt>
<trkpt lat="46.558200000" lon="-70.806680000">
<ele>0</ele>
<time>2026-09-04T06:31:40Z</time>
</trkpt>
<trkpt lat="46.557780000" lon="-70.806080000">
<ele>0</ele>
<time>2026-09-04T06:31:41Z</time>
</trkpt>
<trkpt lat="46.557120000" lon="-70.805340000">
<ele>0</ele>
<time>2026-09-04T06:31:42Z</time>
</trkpt>
<trkpt lat="46.556260000" lon="-70.804530000">
<ele>0</ele>
<time>2026-09-04T06:31:43Z</time>
</trkpt>
<trkpt lat="46.554980000" lon="-70.803590000">
<ele>0</ele>
<time>2026-09-04T06:31:44Z</time>
</trkpt>
<trkpt lat="46.551880000" lon="-70.801380000">
<ele>0</ele>
<time>2026-09-04T06:31:45Z</time>
</trkpt>
<trkpt lat="46.551640000" lon="-70.801160000">
<ele>0</ele>
<time>2026-09-04T06:31:46Z</time>
</trkpt>
<trkpt lat="46.551220000" lon="-70.800690000">
<ele>0</ele>
<time>2026-09-04T06:31:47Z</time>
</trkpt>
<trkpt lat="46.550820000" lon="-70.800100000">
<ele>0</ele>
<time>2026-09-04T06:31:48Z</time>
</trkpt>
<trkpt lat="46.550570000" lon="-70.799670000">
<ele>0</ele>
<time>2026-09-04T06:31:49Z</time>
</trkpt>
<trkpt lat="46.550170000" lon="-70.798700000">
<ele>0</ele>
<time>2026-09-04T06:31:50Z</time>
</trkpt>
<trkpt lat="46.548540000" lon="-70.793950000">
<ele>0</ele>
<time>2026-09-04T06:31:51Z</time>
</trkpt>
<trkpt lat="46.548330000" lon="-70.793310000">
<ele>0</ele>
<time>2026-09-04T06:31:52Z</time>
</trkpt>
<trkpt lat="46.548050000" lon="-70.792630000">
<ele>0</ele>
<time>2026-09-04T06:31:53Z</time>
</trkpt>
<trkpt lat="46.547740000" lon="-70.792030000">
<ele>0</ele>
<time>2026-09-04T06:31:54Z</time>
</trkpt>
<trkpt lat="46.547420000" lon="-70.791500000">
<ele>0</ele>
<time>2026-09-04T06:31:55Z</time>
</trkpt>
<trkpt lat="46.546970000" lon="-70.790900000">
<ele>0</ele>
<time>2026-09-04T06:31:56Z</time>
</trkpt>
<trkpt lat="46.546320000" lon="-70.790270000">
<ele>0</ele>
<time>2026-09-04T06:31:57Z</time>
</trkpt>
<trkpt lat="46.545500000" lon="-70.789590000">
<ele>0</ele>
<time>2026-09-04T06:31:58Z</time>
</trkpt>
<trkpt lat="46.544640000" lon="-70.788840000">
<ele>0</ele>
<time>2026-09-04T06:31:59Z</time>
</trkpt>
<trkpt lat="46.543610000" lon="-70.787980000">
<ele>0</ele>
<time>2026-09-04T06:32:00Z</time>
</trkpt>
<trkpt lat="46.543060000" lon="-70.787540000">
<ele>0</ele>
<time>2026-09-04T06:32:01Z</time>
</trkpt>
<trkpt lat="46.542910000" lon="-70.787440000">
<ele>0</ele>
<time>2026-09-04T06:32:02Z</time>
</trkpt>
<trkpt lat="46.542050000" lon="-70.787100000">
<ele>0</ele>
<time>2026-09-04T06:32:03Z</time>
</trkpt>
<trkpt lat="46.540670000" lon="-70.786510000">
<ele>0</ele>
<time>2026-09-04T06:32:04Z</time>
</trkpt>
<trkpt lat="46.540350000" lon="-70.786290000">
<ele>0</ele>
<time>2026-09-04T06:32:05Z</time>
</trkpt>
<trkpt lat="46.540240000" lon="-70.786250000">
<ele>0</ele>
<time>2026-09-04T06:32:06Z</time>
</trkpt>
<trkpt lat="46.540050000" lon="-70.786260000">
<ele>0</ele>
<time>2026-09-04T06:32:07Z</time>
</trkpt>
<trkpt lat="46.539590000" lon="-70.786360000">
<ele>0</ele>
<time>2026-09-04T06:32:08Z</time>
</trkpt>
<trkpt lat="46.539480000" lon="-70.785730000">
<ele>0</ele>
<time>2026-09-04T06:32:09Z</time>
</trkpt>
<trkpt lat="46.538680000" lon="-70.786260000">
<ele>0</ele>
<time>2026-09-04T06:32:10Z</time>
</trkpt>
<trkpt lat="46.538390000" lon="-70.785800000">
<ele>0</ele>
<time>2026-09-04T06:32:11Z</time>
</trkpt>
<trkpt lat="46.538070000" lon="-70.785440000">
<ele>0</ele>
<time>2026-09-04T06:32:12Z</time>
</trkpt>
<trkpt lat="46.537930000" lon="-70.785310000">
<ele>0</ele>
<time>2026-09-04T06:32:13Z</time>
</trkpt>
<trkpt lat="46.537510000" lon="-70.784990000">
<ele>0</ele>
<time>2026-09-04T06:32:14Z</time>
</trkpt>
<trkpt lat="46.535590000" lon="-70.783860000">
<ele>0</ele>
<time>2026-09-04T06:32:15Z</time>
</trkpt>
<trkpt lat="46.535000000" lon="-70.784760000">
<ele>0</ele>
<time>2026-09-04T06:32:16Z</time>
</trkpt>
<trkpt lat="46.534020000" lon="-70.786330000">
<ele>0</ele>
<time>2026-09-04T06:32:17Z</time>
</trkpt>
<trkpt lat="46.533550000" lon="-70.787040000">
<ele>0</ele>
<time>2026-09-04T06:32:18Z</time>
</trkpt>
<trkpt lat="46.533380000" lon="-70.787270000">
<ele>0</ele>
<time>2026-09-04T06:32:19Z</time>
</trkpt>
<trkpt lat="46.534020000" lon="-70.787380000">
<ele>0</ele>
<time>2026-09-04T06:32:20Z</time>
</trkpt>
<trkpt lat="46.534470000" lon="-70.787480000">
<ele>0</ele>
<time>2026-09-04T06:32:21Z</time>
</trkpt>
<trkpt lat="46.534610000" lon="-70.787560000">
<ele>0</ele>
<time>2026-09-04T06:32:22Z</time>
</trkpt>
<trkpt lat="46.534780000" lon="-70.787680000">
<ele>0</ele>
<time>2026-09-04T06:32:23Z</time>
</trkpt>
<trkpt lat="46.534690000" lon="-70.788060000">
<ele>0</ele>
<time>2026-09-04T06:32:24Z</time>
</trkpt>
<trkpt lat="46.534630000" lon="-70.788470000">
<ele>0</ele>
<time>2026-09-04T06:32:25Z</time>
</trkpt>
<trkpt lat="46.534630000" lon="-70.788760000">
<ele>0</ele>
<time>2026-09-04T06:32:26Z</time>
</trkpt>
<trkpt lat="46.534650000" lon="-70.789030000">
<ele>0</ele>
<time>2026-09-04T06:32:27Z</time>
</trkpt>
<trkpt lat="46.534730000" lon="-70.789460000">
<ele>0</ele>
<time>2026-09-04T06:32:28Z</time>
</trkpt>
<trkpt lat="46.534950000" lon="-70.790240000">
<ele>0</ele>
<time>2026-09-04T06:32:29Z</time>
</trkpt>
<trkpt lat="46.535180000" lon="-70.790760000">
<ele>0</ele>
<time>2026-09-04T06:32:30Z</time>
</trkpt>
<trkpt lat="46.535270000" lon="-70.791120000">
<ele>0</ele>
<time>2026-09-04T06:32:31Z</time>
</trkpt>
<trkpt lat="46.535330000" lon="-70.791540000">
<ele>0</ele>
<time>2026-09-04T06:32:32Z</time>
</trkpt>
<trkpt lat="46.535320000" lon="-70.791580000">
<ele>0</ele>
<time>2026-09-04T06:32:33Z</time>
</trkpt>
<trkpt lat="46.535280000" lon="-70.791820000">
<ele>0</ele>
<time>2026-09-04T06:32:34Z</time>
</trkpt>
<trkpt lat="46.535250000" lon="-70.792510000">
<ele>0</ele>
<time>2026-09-04T06:32:35Z</time>
</trkpt>
<trkpt lat="46.535260000" lon="-70.793100000">
<ele>0</ele>
<time>2026-09-04T06:32:36Z</time>
</trkpt>
<trkpt lat="46.535290000" lon="-70.793470000">
<ele>0</ele>
<time>2026-09-04T06:32:37Z</time>
</trkpt>
<trkpt lat="46.535540000" lon="-70.794650000">
<ele>0</ele>
<time>2026-09-04T06:32:38Z</time>
</trkpt>
<trkpt lat="46.537400000" lon="-70.802630000">
<ele>0</ele>
<time>2026-09-04T06:32:39Z</time>
</trkpt>
<trkpt lat="46.538320000" lon="-70.806760000">
<ele>0</ele>
<time>2026-09-04T06:32:40Z</time>
</trkpt>
<trkpt lat="46.538540000" lon="-70.807750000">
<ele>0</ele>
<time>2026-09-04T06:32:41Z</time>
</trkpt>
<trkpt lat="46.538750000" lon="-70.808240000">
<ele>0</ele>
<time>2026-09-04T06:32:42Z</time>
</trkpt>
<trkpt lat="46.538980000" lon="-70.808640000">
<ele>0</ele>
<time>2026-09-04T06:32:43Z</time>
</trkpt>
<trkpt lat="46.539740000" lon="-70.809740000">
<ele>0</ele>
<time>2026-09-04T06:32:44Z</time>
</trkpt>
<trkpt lat="46.541060000" lon="-70.811620000">
<ele>0</ele>
<time>2026-09-04T06:32:45Z</time>
</trkpt>
<trkpt lat="46.543160000" lon="-70.814850000">
<ele>0</ele>
<time>2026-09-04T06:32:46Z</time>
</trkpt>
<trkpt lat="46.544810000" lon="-70.817030000">
<ele>0</ele>
<time>2026-09-04T06:32:47Z</time>
</trkpt>
<trkpt lat="46.546290000" lon="-70.819230000">
<ele>0</ele>
<time>2026-09-04T06:32:48Z</time>
</trkpt>
<trkpt lat="46.548730000" lon="-70.822670000">
<ele>0</ele>
<time>2026-09-04T06:32:49Z</time>
</trkpt>
<trkpt lat="46.551610000" lon="-70.826850000">
<ele>0</ele>
<time>2026-09-04T06:32:50Z</time>
</trkpt>
<trkpt lat="46.554910000" lon="-70.831590000">
<ele>0</ele>
<time>2026-09-04T06:32:51Z</time>
</trkpt>
<trkpt lat="46.555730000" lon="-70.832900000">
<ele>0</ele>
<time>2026-09-04T06:32:52Z</time>
</trkpt>
<trkpt lat="46.556270000" lon="-70.833670000">
<ele>0</ele>
<time>2026-09-04T06:32:53Z</time>
</trkpt>
<trkpt lat="46.556850000" lon="-70.834310000">
<ele>0</ele>
<time>2026-09-04T06:32:54Z</time>
</trkpt>
<trkpt lat="46.557180000" lon="-70.834560000">
<ele>0</ele>
<time>2026-09-04T06:32:55Z</time>
</trkpt>
<trkpt lat="46.557530000" lon="-70.834770000">
<ele>0</ele>
<time>2026-09-04T06:32:56Z</time>
</trkpt>
<trkpt lat="46.557910000" lon="-70.834950000">
<ele>0</ele>
<time>2026-09-04T06:32:57Z</time>
</trkpt>
<trkpt lat="46.558290000" lon="-70.835070000">
<ele>0</ele>
<time>2026-09-04T06:32:58Z</time>
</trkpt>
<trkpt lat="46.558660000" lon="-70.835150000">
<ele>0</ele>
<time>2026-09-04T06:32:59Z</time>
</trkpt>
<trkpt lat="46.558890000" lon="-70.835160000">
<ele>0</ele>
<time>2026-09-04T06:33:00Z</time>
</trkpt>
<trkpt lat="46.559320000" lon="-70.835150000">
<ele>0</ele>
<time>2026-09-04T06:33:01Z</time>
</trkpt>
<trkpt lat="46.559590000" lon="-70.835090000">
<ele>0</ele>
<time>2026-09-04T06:33:02Z</time>
</trkpt>
<trkpt lat="46.560380000" lon="-70.834840000">
<ele>0</ele>
<time>2026-09-04T06:33:03Z</time>
</trkpt>
<trkpt lat="46.567870000" lon="-70.832090000">
<ele>0</ele>
<time>2026-09-04T06:33:04Z</time>
</trkpt>
<trkpt lat="46.574780000" lon="-70.829520000">
<ele>0</ele>
<time>2026-09-04T06:33:05Z</time>
</trkpt>
<trkpt lat="46.575690000" lon="-70.829260000">
<ele>0</ele>
<time>2026-09-04T06:33:06Z</time>
</trkpt>
<trkpt lat="46.576160000" lon="-70.829180000">
<ele>0</ele>
<time>2026-09-04T06:33:07Z</time>
</trkpt>
<trkpt lat="46.576850000" lon="-70.829120000">
<ele>0</ele>
<time>2026-09-04T06:33:08Z</time>
</trkpt>
<trkpt lat="46.577590000" lon="-70.829200000">
<ele>0</ele>
<time>2026-09-04T06:33:09Z</time>
</trkpt>
<trkpt lat="46.578700000" lon="-70.829470000">
<ele>0</ele>
<time>2026-09-04T06:33:10Z</time>
</trkpt>
<trkpt lat="46.579250000" lon="-70.829660000">
<ele>0</ele>
<time>2026-09-04T06:33:11Z</time>
</trkpt>
<trkpt lat="46.579640000" lon="-70.829840000">
<ele>0</ele>
<time>2026-09-04T06:33:12Z</time>
</trkpt>
<trkpt lat="46.579900000" lon="-70.830000000">
<ele>0</ele>
<time>2026-09-04T06:33:13Z</time>
</trkpt>
<trkpt lat="46.580660000" lon="-70.830590000">
<ele>0</ele>
<time>2026-09-04T06:33:14Z</time>
</trkpt>
<trkpt lat="46.586230000" lon="-70.834990000">
<ele>0</ele>
<time>2026-09-04T06:33:15Z</time>
</trkpt>
<trkpt lat="46.588660000" lon="-70.836930000">
<ele>0</ele>
<time>2026-09-04T06:33:16Z</time>
</trkpt>
<trkpt lat="46.589320000" lon="-70.837450000">
<ele>0</ele>
<time>2026-09-04T06:33:17Z</time>
</trkpt>
<trkpt lat="46.589800000" lon="-70.837930000">
<ele>0</ele>
<time>2026-09-04T06:33:18Z</time>
</trkpt>
<trkpt lat="46.590460000" lon="-70.838780000">
<ele>0</ele>
<time>2026-09-04T06:33:19Z</time>
</trkpt>
<trkpt lat="46.590800000" lon="-70.839320000">
<ele>0</ele>
<time>2026-09-04T06:33:20Z</time>
</trkpt>
<trkpt lat="46.591030000" lon="-70.839830000">
<ele>0</ele>
<time>2026-09-04T06:33:21Z</time>
</trkpt>
<trkpt lat="46.591440000" lon="-70.841000000">
<ele>0</ele>
<time>2026-09-04T06:33:22Z</time>
</trkpt>
<trkpt lat="46.591670000" lon="-70.841870000">
<ele>0</ele>
<time>2026-09-04T06:33:23Z</time>
</trkpt>
<trkpt lat="46.591850000" lon="-70.842750000">
<ele>0</ele>
<time>2026-09-04T06:33:24Z</time>
</trkpt>
<trkpt lat="46.592370000" lon="-70.846850000">
<ele>0</ele>
<time>2026-09-04T06:33:25Z</time>
</trkpt>
<trkpt lat="46.593070000" lon="-70.852140000">
<ele>0</ele>
<time>2026-09-04T06:33:26Z</time>
</trkpt>
<trkpt lat="46.593350000" lon="-70.854100000">
<ele>0</ele>
<time>2026-09-04T06:33:27Z</time>
</trkpt>
<trkpt lat="46.593630000" lon="-70.856480000">
<ele>0</ele>
<time>2026-09-04T06:33:28Z</time>
</trkpt>
<trkpt lat="46.594000000" lon="-70.859010000">
<ele>0</ele>
<time>2026-09-04T06:33:29Z</time>
</trkpt>
<trkpt lat="46.594070000" lon="-70.860460000">
<ele>0</ele>
<time>2026-09-04T06:33:30Z</time>
</trkpt>
<trkpt lat="46.594050000" lon="-70.861810000">
<ele>0</ele>
<time>2026-09-04T06:33:31Z</time>
</trkpt>
<trkpt lat="46.593900000" lon="-70.863630000">
<ele>0</ele>
<time>2026-09-04T06:33:32Z</time>
</trkpt>
<trkpt lat="46.593840000" lon="-70.864110000">
<ele>0</ele>
<time>2026-09-04T06:33:33Z</time>
</trkpt>
<trkpt lat="46.593120000" lon="-70.866370000">
<ele>0</ele>
<time>2026-09-04T06:33:34Z</time>
</trkpt>
<trkpt lat="46.592370000" lon="-70.869020000">
<ele>0</ele>
<time>2026-09-04T06:33:35Z</time>
</trkpt>
<trkpt lat="46.591800000" lon="-70.870940000">
<ele>0</ele>
<time>2026-09-04T06:33:36Z</time>
</trkpt>
<trkpt lat="46.591010000" lon="-70.873610000">
<ele>0</ele>
<time>2026-09-04T06:33:37Z</time>
</trkpt>
<trkpt lat="46.589230000" lon="-70.879550000">
<ele>0</ele>
<time>2026-09-04T06:33:38Z</time>
</trkpt>
<trkpt lat="46.588780000" lon="-70.881350000">
<ele>0</ele>
<time>2026-09-04T06:33:39Z</time>
</trkpt>
<trkpt lat="46.588610000" lon="-70.883250000">
<ele>0</ele>
<time>2026-09-04T06:33:40Z</time>
</trkpt>
<trkpt lat="46.588430000" lon="-70.884740000">
<ele>0</ele>
<time>2026-09-04T06:33:41Z</time>
</trkpt>
<trkpt lat="46.588380000" lon="-70.885780000">
<ele>0</ele>
<time>2026-09-04T06:33:42Z</time>
</trkpt>
<trkpt lat="46.588390000" lon="-70.886830000">
<ele>0</ele>
<time>2026-09-04T06:33:43Z</time>
</trkpt>
<trkpt lat="46.588440000" lon="-70.887870000">
<ele>0</ele>
<time>2026-09-04T06:33:44Z</time>
</trkpt>
<trkpt lat="46.588540000" lon="-70.888810000">
<ele>0</ele>
<time>2026-09-04T06:33:45Z</time>
</trkpt>
<trkpt lat="46.588630000" lon="-70.889540000">
<ele>0</ele>
<time>2026-09-04T06:33:46Z</time>
</trkpt>
<trkpt lat="46.588750000" lon="-70.890200000">
<ele>0</ele>
<time>2026-09-04T06:33:47Z</time>
</trkpt>
<trkpt lat="46.589750000" lon="-70.894560000">
<ele>0</ele>
<time>2026-09-04T06:33:48Z</time>
</trkpt>
<trkpt lat="46.590470000" lon="-70.897860000">
<ele>0</ele>
<time>2026-09-04T06:33:49Z</time>
</trkpt>
<trkpt lat="46.590630000" lon="-70.898660000">
<ele>0</ele>
<time>2026-09-04T06:33:50Z</time>
</trkpt>
<trkpt lat="46.591390000" lon="-70.901920000">
<ele>0</ele>
<time>2026-09-04T06:33:51Z</time>
</trkpt>
<trkpt lat="46.592950000" lon="-70.908940000">
<ele>0</ele>
<time>2026-09-04T06:33:52Z</time>
</trkpt>
<trkpt lat="46.593230000" lon="-70.910100000">
<ele>0</ele>
<time>2026-09-04T06:33:53Z</time>
</trkpt>
<trkpt lat="46.593340000" lon="-70.910650000">
<ele>0</ele>
<time>2026-09-04T06:33:54Z</time>
</trkpt>
<trkpt lat="46.593410000" lon="-70.911180000">
<ele>0</ele>
<time>2026-09-04T06:33:55Z</time>
</trkpt>
<trkpt lat="46.593410000" lon="-70.911880000">
<ele>0</ele>
<time>2026-09-04T06:33:56Z</time>
</trkpt>
<trkpt lat="46.593360000" lon="-70.912920000">
<ele>0</ele>
<time>2026-09-04T06:33:57Z</time>
</trkpt>
<trkpt lat="46.593200000" lon="-70.914550000">
<ele>0</ele>
<time>2026-09-04T06:33:58Z</time>
</trkpt>
<trkpt lat="46.592960000" lon="-70.916880000">
<ele>0</ele>
<time>2026-09-04T06:33:59Z</time>
</trkpt>
<trkpt lat="46.592880000" lon="-70.917820000">
<ele>0</ele>
<time>2026-09-04T06:34:00Z</time>
</trkpt>
<trkpt lat="46.592860000" lon="-70.918400000">
<ele>0</ele>
<time>2026-09-04T06:34:01Z</time>
</trkpt>
<trkpt lat="46.592890000" lon="-70.918920000">
<ele>0</ele>
<time>2026-09-04T06:34:02Z</time>
</trkpt>
<trkpt lat="46.593040000" lon="-70.920030000">
<ele>0</ele>
<time>2026-09-04T06:34:03Z</time>
</trkpt>
<trkpt lat="46.593170000" lon="-70.920540000">
<ele>0</ele>
<time>2026-09-04T06:34:04Z</time>
</trkpt>
<trkpt lat="46.593990000" lon="-70.923140000">
<ele>0</ele>
<time>2026-09-04T06:34:05Z</time>
</trkpt>
<trkpt lat="46.594780000" lon="-70.925840000">
<ele>0</ele>
<time>2026-09-04T06:34:06Z</time>
</trkpt>
<trkpt lat="46.594920000" lon="-70.926380000">
<ele>0</ele>
<time>2026-09-04T06:34:07Z</time>
</trkpt>
<trkpt lat="46.594960000" lon="-70.926830000">
<ele>0</ele>
<time>2026-09-04T06:34:08Z</time>
</trkpt>
<trkpt lat="46.594980000" lon="-70.927600000">
<ele>0</ele>
<time>2026-09-04T06:34:09Z</time>
</trkpt>
<trkpt lat="46.594940000" lon="-70.928460000">
<ele>0</ele>
<time>2026-09-04T06:34:10Z</time>
</trkpt>
<trkpt lat="46.594820000" lon="-70.929150000">
<ele>0</ele>
<time>2026-09-04T06:34:11Z</time>
</trkpt>
<trkpt lat="46.594630000" lon="-70.929870000">
<ele>0</ele>
<time>2026-09-04T06:34:12Z</time>
</trkpt>
<trkpt lat="46.594410000" lon="-70.930510000">
<ele>0</ele>
<time>2026-09-04T06:34:13Z</time>
</trkpt>
<trkpt lat="46.594010000" lon="-70.931310000">
<ele>0</ele>
<time>2026-09-04T06:34:14Z</time>
</trkpt>
<trkpt lat="46.593520000" lon="-70.932070000">
<ele>0</ele>
<time>2026-09-04T06:34:15Z</time>
</trkpt>
<trkpt lat="46.591880000" lon="-70.934390000">
<ele>0</ele>
<time>2026-09-04T06:34:16Z</time>
</trkpt>
<trkpt lat="46.590490000" lon="-70.936310000">
<ele>0</ele>
<time>2026-09-04T06:34:17Z</time>
</trkpt>
<trkpt lat="46.589620000" lon="-70.937680000">
<ele>0</ele>
<time>2026-09-04T06:34:18Z</time>
</trkpt>
<trkpt lat="46.589230000" lon="-70.938620000">
<ele>0</ele>
<time>2026-09-04T06:34:19Z</time>
</trkpt>
<trkpt lat="46.589000000" lon="-70.939460000">
<ele>0</ele>
<time>2026-09-04T06:34:20Z</time>
</trkpt>
<trkpt lat="46.588800000" lon="-70.940500000">
<ele>0</ele>
<time>2026-09-04T06:34:21Z</time>
</trkpt>
<trkpt lat="46.588730000" lon="-70.941440000">
<ele>0</ele>
<time>2026-09-04T06:34:22Z</time>
</trkpt>
<trkpt lat="46.588790000" lon="-70.942350000">
<ele>0</ele>
<time>2026-09-04T06:34:23Z</time>
</trkpt>
<trkpt lat="46.588910000" lon="-70.943170000">
<ele>0</ele>
<time>2026-09-04T06:34:24Z</time>
</trkpt>
<trkpt lat="46.589060000" lon="-70.943900000">
<ele>0</ele>
<time>2026-09-04T06:34:25Z</time>
</trkpt>
<trkpt lat="46.589300000" lon="-70.944620000">
<ele>0</ele>
<time>2026-09-04T06:34:26Z</time>
</trkpt>
<trkpt lat="46.589700000" lon="-70.945460000">
<ele>0</ele>
<time>2026-09-04T06:34:27Z</time>
</trkpt>
<trkpt lat="46.590260000" lon="-70.946370000">
<ele>0</ele>
<time>2026-09-04T06:34:28Z</time>
</trkpt>
<trkpt lat="46.590770000" lon="-70.946930000">
<ele>0</ele>
<time>2026-09-04T06:34:29Z</time>
</trkpt>
<trkpt lat="46.591210000" lon="-70.947310000">
<ele>0</ele>
<time>2026-09-04T06:34:30Z</time>
</trkpt>
<trkpt lat="46.591750000" lon="-70.947660000">
<ele>0</ele>
<time>2026-09-04T06:34:31Z</time>
</trkpt>
<trkpt lat="46.592110000" lon="-70.947820000">
<ele>0</ele>
<time>2026-09-04T06:34:32Z</time>
</trkpt>
<trkpt lat="46.592470000" lon="-70.947950000">
<ele>0</ele>
<time>2026-09-04T06:34:33Z</time>
</trkpt>
<trkpt lat="46.592890000" lon="-70.948010000">
<ele>0</ele>
<time>2026-09-04T06:34:34Z</time>
</trkpt>
<trkpt lat="46.593300000" lon="-70.948010000">
<ele>0</ele>
<time>2026-09-04T06:34:35Z</time>
</trkpt>
<trkpt lat="46.594060000" lon="-70.947930000">
<ele>0</ele>
<time>2026-09-04T06:34:36Z</time>
</trkpt>
<trkpt lat="46.603180000" lon="-70.946130000">
<ele>0</ele>
<time>2026-09-04T06:34:37Z</time>
</trkpt>
<trkpt lat="46.605090000" lon="-70.945790000">
<ele>0</ele>
<time>2026-09-04T06:34:38Z</time>
</trkpt>
<trkpt lat="46.607860000" lon="-70.945190000">
<ele>0</ele>
<time>2026-09-04T06:34:39Z</time>
</trkpt>
<trkpt lat="46.608470000" lon="-70.945750000">
<ele>0</ele>
<time>2026-09-04T06:34:40Z</time>
</trkpt>
<trkpt lat="46.608800000" lon="-70.946090000">
<ele>0</ele>
<time>2026-09-04T06:34:41Z</time>
</trkpt>
<trkpt lat="46.609420000" lon="-70.946810000">
<ele>0</ele>
<time>2026-09-04T06:34:42Z</time>
</trkpt>
<trkpt lat="46.610760000" lon="-70.948150000">
<ele>0</ele>
<time>2026-09-04T06:34:43Z</time>
</trkpt>
<trkpt lat="46.611560000" lon="-70.948860000">
<ele>0</ele>
<time>2026-09-04T06:34:44Z</time>
</trkpt>
<trkpt lat="46.612180000" lon="-70.949470000">
<ele>0</ele>
<time>2026-09-04T06:34:45Z</time>
</trkpt>
<trkpt lat="46.612440000" lon="-70.949770000">
<ele>0</ele>
<time>2026-09-04T06:34:46Z</time>
</trkpt>
<trkpt lat="46.612600000" lon="-70.949950000">
<ele>0</ele>
<time>2026-09-04T06:34:47Z</time>
</trkpt>
<trkpt lat="46.613090000" lon="-70.949410000">
<ele>0</ele>
<time>2026-09-04T06:34:48Z</time>
</trkpt>
<trkpt lat="46.613560000" lon="-70.949050000">
<ele>0</ele>
<time>2026-09-04T06:34:49Z</time>
</trkpt>
<trkpt lat="46.614030000" lon="-70.948820000">
<ele>0</ele>
<time>2026-09-04T06:34:50Z</time>
</trkpt>
<trkpt lat="46.614480000" lon="-70.948700000">
<ele>0</ele>
<time>2026-09-04T06:34:51Z</time>
</trkpt>
<trkpt lat="46.615110000" lon="-70.948710000">
<ele>0</ele>
<time>2026-09-04T06:34:52Z</time>
</trkpt>
<trkpt lat="46.616930000" lon="-70.949040000">
<ele>0</ele>
<time>2026-09-04T06:34:53Z</time>
</trkpt>
<trkpt lat="46.618340000" lon="-70.949340000">
<ele>0</ele>
<time>2026-09-04T06:34:54Z</time>
</trkpt>
<trkpt lat="46.618730000" lon="-70.949450000">
<ele>0</ele>
<time>2026-09-04T06:34:55Z</time>
</trkpt>
<trkpt lat="46.619110000" lon="-70.949630000">
<ele>0</ele>
<time>2026-09-04T06:34:56Z</time>
</trkpt>
<trkpt lat="46.619490000" lon="-70.949890000">
<ele>0</ele>
<time>2026-09-04T06:34:57Z</time>
</trkpt>
<trkpt lat="46.619870000" lon="-70.950260000">
<ele>0</ele>
<time>2026-09-04T06:34:58Z</time>
</trkpt>
<trkpt lat="46.620640000" lon="-70.951150000">
<ele>0</ele>
<time>2026-09-04T06:34:59Z</time>
</trkpt>
<trkpt lat="46.621110000" lon="-70.951710000">
<ele>0</ele>
<time>2026-09-04T06:35:00Z</time>
</trkpt>
<trkpt lat="46.621570000" lon="-70.952410000">
<ele>0</ele>
<time>2026-09-04T06:35:01Z</time>
</trkpt>
<trkpt lat="46.621830000" lon="-70.953200000">
<ele>0</ele>
<time>2026-09-04T06:35:02Z</time>
</trkpt>
<trkpt lat="46.621800000" lon="-70.953400000">
<ele>0</ele>
<time>2026-09-04T06:35:03Z</time>
</trkpt>
<trkpt lat="46.621610000" lon="-70.953520000">
<ele>0</ele>
<time>2026-09-04T06:35:04Z</time>
</trkpt>
<trkpt lat="46.621540000" lon="-70.953630000">
<ele>0</ele>
<time>2026-09-04T06:35:05Z</time>
</trkpt>
<trkpt lat="46.621500000" lon="-70.953750000">
<ele>0</ele>
<time>2026-09-04T06:35:06Z</time>
</trkpt>
<trkpt lat="46.621510000" lon="-70.954030000">
<ele>0</ele>
<time>2026-09-04T06:35:07Z</time>
</trkpt>
<trkpt lat="46.621430000" lon="-70.954300000">
<ele>0</ele>
<time>2026-09-04T06:35:08Z</time>
</trkpt>
<trkpt lat="46.621290000" lon="-70.954710000">
<ele>0</ele>
<time>2026-09-04T06:35:09Z</time>
</trkpt>
<trkpt lat="46.621260000" lon="-70.954990000">
<ele>0</ele>
<time>2026-09-04T06:35:10Z</time>
</trkpt>
<trkpt lat="46.621280000" lon="-70.955370000">
<ele>0</ele>
<time>2026-09-04T06:35:11Z</time>
</trkpt>
<trkpt lat="46.621320000" lon="-70.955530000">
<ele>0</ele>
<time>2026-09-04T06:35:12Z</time>
</trkpt>
<trkpt lat="46.621450000" lon="-70.955840000">
<ele>0</ele>
<time>2026-09-04T06:35:13Z</time>
</trkpt>
<trkpt lat="46.621570000" lon="-70.956130000">
<ele>0</ele>
<time>2026-09-04T06:35:14Z</time>
</trkpt>
<trkpt lat="46.621610000" lon="-70.956350000">
<ele>0</ele>
<time>2026-09-04T06:35:15Z</time>
</trkpt>
<trkpt lat="46.621660000" lon="-70.956650000">
<ele>0</ele>
<time>2026-09-04T06:35:16Z</time>
</trkpt>
<trkpt lat="46.621750000" lon="-70.956860000">
<ele>0</ele>
<time>2026-09-04T06:35:17Z</time>
</trkpt>
<trkpt lat="46.621780000" lon="-70.957030000">
<ele>0</ele>
<time>2026-09-04T06:35:18Z</time>
</trkpt>
<trkpt lat="46.621780000" lon="-70.957230000">
<ele>0</ele>
<time>2026-09-04T06:35:19Z</time>
</trkpt>
<trkpt lat="46.621740000" lon="-70.957440000">
<ele>0</ele>
<time>2026-09-04T06:35:20Z</time>
</trkpt>
<trkpt lat="46.621780000" lon="-70.958020000">
<ele>0</ele>
<time>2026-09-04T06:35:21Z</time>
</trkpt>
<trkpt lat="46.621840000" lon="-70.958340000">
<ele>0</ele>
<time>2026-09-04T06:35:22Z</time>
</trkpt>
<trkpt lat="46.621900000" lon="-70.958490000">
<ele>0</ele>
<time>2026-09-04T06:35:23Z</time>
</trkpt>
<trkpt lat="46.622150000" lon="-70.958930000">
<ele>0</ele>
<time>2026-09-04T06:35:24Z</time>
</trkpt>
<trkpt lat="46.622220000" lon="-70.959220000">
<ele>0</ele>
<time>2026-09-04T06:35:25Z</time>
</trkpt>
<trkpt lat="46.622310000" lon="-70.959730000">
<ele>0</ele>
<time>2026-09-04T06:35:26Z</time>
</trkpt>
<trkpt lat="46.622320000" lon="-70.959960000">
<ele>0</ele>
<time>2026-09-04T06:35:27Z</time>
</trkpt>
<trkpt lat="46.622370000" lon="-70.960130000">
<ele>0</ele>
<time>2026-09-04T06:35:28Z</time>
</trkpt>
<trkpt lat="46.622470000" lon="-70.960330000">
<ele>0</ele>
<time>2026-09-04T06:35:29Z</time>
</trkpt>
<trkpt lat="46.622650000" lon="-70.960390000">
<ele>0</ele>
<time>2026-09-04T06:35:30Z</time>
</trkpt>
<trkpt lat="46.622900000" lon="-70.960400000">
<ele>0</ele>
<time>2026-09-04T06:35:31Z</time>
</trkpt>
<trkpt lat="46.622940000" lon="-70.960430000">
<ele>0</ele>
<time>2026-09-04T06:35:32Z</time>
</trkpt>
<trkpt lat="46.622970000" lon="-70.960580000">
<ele>0</ele>
<time>2026-09-04T06:35:33Z</time>
</trkpt>
<trkpt lat="46.623070000" lon="-70.961160000">
<ele>0</ele>
<time>2026-09-04T06:35:34Z</time>
</trkpt>
<trkpt lat="46.623380000" lon="-70.962390000">
<ele>0</ele>
<time>2026-09-04T06:35:35Z</time>
</trkpt>
<trkpt lat="46.623620000" lon="-70.962970000">
<ele>0</ele>
<time>2026-09-04T06:35:36Z</time>
</trkpt>
<trkpt lat="46.624110000" lon="-70.963790000">
<ele>0</ele>
<time>2026-09-04T06:35:37Z</time>
</trkpt>
<trkpt lat="46.624450000" lon="-70.964270000">
<ele>0</ele>
<time>2026-09-04T06:35:38Z</time>
</trkpt>
<trkpt lat="46.624780000" lon="-70.964590000">
<ele>0</ele>
<time>2026-09-04T06:35:39Z</time>
</trkpt>
<trkpt lat="46.626660000" lon="-70.966540000">
<ele>0</ele>
<time>2026-09-04T06:35:40Z</time>
</trkpt>
<trkpt lat="46.626970000" lon="-70.966840000">
<ele>0</ele>
<time>2026-09-04T06:35:41Z</time>
</trkpt>
<trkpt lat="46.627240000" lon="-70.967060000">
<ele>0</ele>
<time>2026-09-04T06:35:42Z</time>
</trkpt>
<trkpt lat="46.627650000" lon="-70.967280000">
<ele>0</ele>
<time>2026-09-04T06:35:43Z</time>
</trkpt>
<trkpt lat="46.627700000" lon="-70.967310000">
<ele>0</ele>
<time>2026-09-04T06:35:44Z</time>
</trkpt>
<trkpt lat="46.628120000" lon="-70.967620000">
<ele>0</ele>
<time>2026-09-04T06:35:45Z</time>
</trkpt>
<trkpt lat="46.628670000" lon="-70.968060000">
<ele>0</ele>
<time>2026-09-04T06:35:46Z</time>
</trkpt>
<trkpt lat="46.629870000" lon="-70.968660000">
<ele>0</ele>
<time>2026-09-04T06:35:47Z</time>
</trkpt>
<trkpt lat="46.630560000" lon="-70.970940000">
<ele>0</ele>
<time>2026-09-04T06:35:48Z</time>
</trkpt>
<trkpt lat="46.631190000" lon="-70.970100000">
<ele>0</ele>
<time>2026-09-04T06:35:49Z</time>
</trkpt>
<trkpt lat="46.631620000" lon="-70.969410000">
<ele>0</ele>
<time>2026-09-04T06:35:50Z</time>
</trkpt>
<trkpt lat="46.632740000" lon="-70.970410000">
<ele>0</ele>
<time>2026-09-04T06:35:51Z</time>
</trkpt>
<trkpt lat="46.633240000" lon="-70.971180000">
<ele>0</ele>
<time>2026-09-04T06:35:52Z</time>
</trkpt>
<trkpt lat="46.633970000" lon="-70.972680000">
<ele>0</ele>
<time>2026-09-04T06:35:53Z</time>
</trkpt>
<trkpt lat="46.634520000" lon="-70.973710000">
<ele>0</ele>
<time>2026-09-04T06:35:54Z</time>
</trkpt>
<trkpt lat="46.635300000" lon="-70.974860000">
<ele>0</ele>
<time>2026-09-04T06:35:55Z</time>
</trkpt>
<trkpt lat="46.636000000" lon="-70.975680000">
<ele>0</ele>
<time>2026-09-04T06:35:56Z</time>
</trkpt>
<trkpt lat="46.636940000" lon="-70.976310000">
<ele>0</ele>
<time>2026-09-04T06:35:57Z</time>
</trkpt>
<trkpt lat="46.638270000" lon="-70.976810000">
<ele>0</ele>
<time>2026-09-04T06:35:58Z</time>
</trkpt>
<trkpt lat="46.639500000" lon="-70.977260000">
<ele>0</ele>
<time>2026-09-04T06:35:59Z</time>
</trkpt>
<trkpt lat="46.640270000" lon="-70.977680000">
<ele>0</ele>
<time>2026-09-04T06:36:00Z</time>
</trkpt>
<trkpt lat="46.641130000" lon="-70.978520000">
<ele>0</ele>
<time>2026-09-04T06:36:01Z</time>
</trkpt>
<trkpt lat="46.641890000" lon="-70.979630000">
<ele>0</ele>
<time>2026-09-04T06:36:02Z</time>
</trkpt>
<trkpt lat="46.642550000" lon="-70.980980000">
<ele>0</ele>
<time>2026-09-04T06:36:03Z</time>
</trkpt>
<trkpt lat="46.643320000" lon="-70.982930000">
<ele>0</ele>
<time>2026-09-04T06:36:04Z</time>
</trkpt>
<trkpt lat="46.644000000" lon="-70.984210000">
<ele>0</ele>
<time>2026-09-04T06:36:05Z</time>
</trkpt>
<trkpt lat="46.644740000" lon="-70.985430000">
<ele>0</ele>
<time>2026-09-04T06:36:06Z</time>
</trkpt>
<trkpt lat="46.646370000" lon="-70.987740000">
<ele>0</ele>
<time>2026-09-04T06:36:07Z</time>
</trkpt>
<trkpt lat="46.648190000" lon="-70.990230000">
<ele>0</ele>
<time>2026-09-04T06:36:08Z</time>
</trkpt>
<trkpt lat="46.651890000" lon="-70.995430000">
<ele>0</ele>
<time>2026-09-04T06:36:09Z</time>
</trkpt>
<trkpt lat="46.656030000" lon="-71.001140000">
<ele>0</ele>
<time>2026-09-04T06:36:10Z</time>
</trkpt>
<trkpt lat="46.659630000" lon="-71.006130000">
<ele>0</ele>
<time>2026-09-04T06:36:11Z</time>
</trkpt>
<trkpt lat="46.662730000" lon="-71.010490000">
<ele>0</ele>
<time>2026-09-04T06:36:12Z</time>
</trkpt>
<trkpt lat="46.663410000" lon="-71.011280000">
<ele>0</ele>
<time>2026-09-04T06:36:13Z</time>
</trkpt>
<trkpt lat="46.664970000" lon="-71.012970000">
<ele>0</ele>
<time>2026-09-04T06:36:14Z</time>
</trkpt>
<trkpt lat="46.667490000" lon="-71.016360000">
<ele>0</ele>
<time>2026-09-04T06:36:15Z</time>
</trkpt>
<trkpt lat="46.671790000" lon="-71.022320000">
<ele>0</ele>
<time>2026-09-04T06:36:16Z</time>
</trkpt>
<trkpt lat="46.672420000" lon="-71.023210000">
<ele>0</ele>
<time>2026-09-04T06:36:17Z</time>
</trkpt>
<trkpt lat="46.678700000" lon="-71.031800000">
<ele>0</ele>
<time>2026-09-04T06:36:18Z</time>
</trkpt>
<trkpt lat="46.683990000" lon="-71.039020000">
<ele>0</ele>
<time>2026-09-04T06:36:19Z</time>
</trkpt>
<trkpt lat="46.685170000" lon="-71.041080000">
<ele>0</ele>
<time>2026-09-04T06:36:20Z</time>
</trkpt>
<trkpt lat="46.686170000" lon="-71.043490000">
<ele>0</ele>
<time>2026-09-04T06:36:21Z</time>
</trkpt>
<trkpt lat="46.689390000" lon="-71.051980000">
<ele>0</ele>
<time>2026-09-04T06:36:22Z</time>
</trkpt>
<trkpt lat="46.690540000" lon="-71.054970000">
<ele>0</ele>
<time>2026-09-04T06:36:23Z</time>
</trkpt>
<trkpt lat="46.691170000" lon="-71.056440000">
<ele>0</ele>
<time>2026-09-04T06:36:24Z</time>
</trkpt>
<trkpt lat="46.691590000" lon="-71.057240000">
<ele>0</ele>
<time>2026-09-04T06:36:25Z</time>
</trkpt>
<trkpt lat="46.692560000" lon="-71.058850000">
<ele>0</ele>
<time>2026-09-04T06:36:26Z</time>
</trkpt>
<trkpt lat="46.693820000" lon="-71.061210000">
<ele>0</ele>
<time>2026-09-04T06:36:27Z</time>
</trkpt>
<trkpt lat="46.695290000" lon="-71.063840000">
<ele>0</ele>
<time>2026-09-04T06:36:28Z</time>
</trkpt>
<trkpt lat="46.695730000" lon="-71.064680000">
<ele>0</ele>
<time>2026-09-04T06:36:29Z</time>
</trkpt>
</trkseg>
</trk>
</gpx>
